Latitude: N 50° 09' 49" Longitude: W 05° 11' 53" Elevation: 168m ASL

There are 24 visitors online

Adverts

<- Previous Day | Today | Next Day ->

All Data for 12 October 2018

Time
A - D
Temp
A - D
Dew Point
A - D
Humidity
A - D
Pressure
A - D
Wind
A - D
Wind Dir Gust
A - D
Rain Rate
A - D
Rain Total
00:01 13.0 12.9 99 1002.3 14.5 SE 23.5 0.0 0.0
00:02 13.0 12.9 99 1002.1 17.4 SE 23.5 0.0 0.0
00:03 13.0 12.9 99 1002.3 19.7 SE 23.5 0.0 0.0
00:04 13.0 12.9 99 1002.3 17.4 S 23.5 0.0 0.0
00:05 13.0 12.9 99 1002.3 19.7 SE 23.5 0.0 0.0
00:06 13.0 12.9 99 1002.3 19.0 SE 23.5 0.0 0.0
00:07 13.0 12.9 99 1002.2 15.2 SE 23.5 0.0 0.0
00:08 13.0 12.9 99 1002.1 19.7 E 23.5 0.0 0.0
00:09 13.0 12.9 99 1002.0 15.9 SE 23.5 0.0 0.0
00:10 13.0 12.9 99 1002.2 19.7 SSW 23.5 0.0 0.0
00:11 13.1 13.0 99 1002.1 18.3 SE 23.5 0.0 0.0
00:12 13.1 13.0 99 1002.2 16.8 S 22.1 0.0 0.0
00:13 13.1 13.0 99 1002.1 13.6 S 22.1 0.0 0.0
00:14 13.1 13.0 99 1002.3 18.3 SE 22.1 0.0 0.0
00:15 13.1 13.0 99 1002.0 18.3 SE 22.1 0.0 0.0
00:16 13.2 13.1 99 1002.2 20.6 SE 25.9 0.0 0.0
00:17 13.2 13.1 99 1001.8 22.1 SSE 25.9 0.0 0.0
00:18 13.2 13.1 99 1002.2 24.4 SE 25.9 0.0 0.0
00:20 13.2 13.1 99 1002.1 20.6 SE 25.9 0.8 0.1
00:21 13.2 13.1 99 1001.9 15.2 SE 25.9 0.8 0.1
00:22 13.2 13.1 99 1002.0 20.6 SSE 25.9 0.8 0.1
00:23 13.3 13.2 99 1001.9 16.8 SE 25.9 0.8 0.1
00:24 13.3 13.2 99 1001.9 21.3 S 25.9 0.0 0.1
00:25 13.3 13.2 99 1001.8 19.7 SE 25.9 0.0 0.1
00:26 13.3 13.2 99 1001.7 21.3 SE 24.4 0.0 0.1
00:27 13.3 13.2 99 1001.8 22.8 SE 24.4 0.0 0.1
00:28 13.3 13.2 99 1001.9 18.3 SE 22.8 0.0 0.1
00:29 13.3 13.2 99 1002.0 18.3 SE 22.8 0.0 0.1
00:30 13.3 13.2 99 1001.8 22.1 SE 22.8 0.0 0.1
00:31 13.3 13.2 99 1001.9 25.9 SE 25.9 0.0 0.1
00:32 13.3 13.2 99 1001.9 16.8 ESE 25.9 0.0 0.1
00:33 13.4 13.3 99 1001.8 26.6 SE 26.6 0.0 0.1
00:34 13.4 13.3 99 1001.8 19.7 S 26.6 0.0 0.1
00:35 13.4 13.3 99 1001.8 21.3 S 26.6 0.0 0.1
00:36 13.4 13.3 99 1001.8 22.1 SSE 26.6 0.0 0.1
00:37 13.4 13.3 99 1001.8 20.6 SE 26.6 0.0 0.1
00:39 13.4 13.3 99 1001.8 25.9 SE 26.6 0.0 0.1
00:40 13.4 13.3 99 1001.6 22.1 SE 26.6 0.0 0.1
00:41 13.4 13.3 99 1001.6 20.6 SE 26.6 0.0 0.1
00:42 13.4 13.3 99 1001.5 15.9 SE 26.6 0.0 0.1
00:43 13.4 13.3 99 1001.7 17.4 S 25.9 0.0 0.1
00:44 13.4 13.3 99 1001.6 20.6 SE 25.9 0.0 0.1
00:45 13.4 13.3 99 1001.7 22.8 S 25.9 0.0 0.1
00:46 13.5 13.4 99 1001.9 26.6 SE 26.6 0.0 0.1
00:47 13.4 13.3 99 1001.6 25.1 SE 26.6 0.0 0.1
00:48 13.4 13.3 99 1001.7 19.0 SE 26.6 0.0 0.1
00:49 13.4 13.3 99 1001.7 25.9 SE 26.6 0.0 0.1
00:50 13.5 13.4 99 1001.6 19.7 SE 26.6 0.0 0.1
00:51 13.4 13.3 99 1001.6 21.3 SE 26.6 0.8 0.1
00:52 13.5 13.4 99 1001.8 20.6 S 26.6 0.8 0.1
00:53 13.5 13.4 99 1001.6 23.5 SW 26.6 0.8 0.1
00:54 13.5 13.4 99 1001.5 27.3 SE 27.3 0.8 0.1
00:55 13.5 13.4 99 1001.7 19.0 S 27.3 0.8 0.1
00:56 13.5 13.4 99 1001.8 22.1 S 27.3 0.0 0.1
00:58 13.5 13.4 99 1001.7 14.5 SE 27.3 0.8 0.2
00:59 13.5 13.4 99 1001.8 22.1 S 27.3 0.8 0.2
01:00 13.5 13.4 99 1001.8 20.6 S 27.3 0.8 0.2
01:01 13.5 13.4 99 1001.6 21.3 SE 27.3 0.8 0.2
01:02 13.5 13.4 99 1001.7 19.7 SSE 27.3 0.0 0.2
01:03 13.5 13.4 99 1001.8 21.3 SE 27.3 0.0 0.3
01:04 13.5 13.4 99 1001.8 19.7 NNE 25.1 0.8 0.3
01:05 13.5 13.4 99 1001.7 21.3 SE 25.1 0.8 0.3
01:06 13.5 13.4 99 1001.7 22.8 S 25.1 0.8 0.3
01:08 13.5 13.4 99 1001.8 20.6 SE 22.8 0.8 0.3
01:09 13.4 13.3 99 1001.7 18.3 S 26.6 0.0 0.3
01:10 13.5 13.4 99 1001.5 22.8 SSE 26.6 0.0 0.3
01:11 13.5 13.4 99 1001.6 24.4 S 26.6 0.8 0.3
01:12 13.5 13.4 99 1001.6 24.4 NW 26.6 0.8 0.3
01:13 13.5 13.4 99 1001.5 19.0 S 26.6 0.8 0.3
01:14 13.5 13.4 99 1001.7 20.6 SE 26.6 0.8 0.3
01:15 13.5 13.4 99 1001.8 15.9 SE 26.6 0.8 0.4
01:16 13.5 13.4 99 1001.5 21.3 S 26.6 0.8 0.4
01:17 13.5 13.4 99 1001.6 20.6 SE 26.6 0.8 0.4
01:18 13.5 13.4 99 1001.8 19.0 S 26.6 0.8 0.4
01:19 13.5 13.4 99 1001.8 25.1 SE 26.6 0.8 0.4
01:20 13.5 13.4 99 1001.7 21.3 E 25.1 0.8 0.4
01:21 13.5 13.4 99 1001.6 23.5 SE 25.1 0.8 0.4
01:22 13.5 13.4 99 1001.5 17.4 SE 25.1 0.8 0.4
01:23 13.5 13.4 99 1001.8 22.1 SE 25.1 1.5 0.5
01:24 13.5 13.4 99 1001.8 25.1 SE 25.1 1.5 0.6
01:25 13.5 13.4 99 1001.7 19.7 SE 25.1 2.3 0.6
01:27 13.5 13.4 99 1001.8 19.7 SE 25.1 1.5 0.6
01:28 13.5 13.4 99 1001.5 24.4 SE 25.1 1.5 0.6
01:29 13.5 13.4 99 1001.5 16.8 S 25.1 1.5 0.6
01:30 13.5 13.4 99 1001.6 19.7 S 25.1 0.8 0.6
01:31 13.5 13.4 99 1001.7 21.3 S 25.1 0.8 0.6
01:32 13.5 13.4 99 1001.6 22.8 S 25.1 0.8 0.6
01:33 13.5 13.4 99 1001.6 19.0 S 25.1 0.8 0.7
01:34 13.5 13.4 99 1001.4 19.7 S 24.4 0.8 0.7
01:35 13.5 13.4 99 1001.6 20.6 SE 24.4 0.8 0.7
01:36 13.5 13.4 99 1001.5 25.9 SE 25.9 0.8 0.7
01:37 13.5 13.4 99 1001.5 25.1 SE 25.9 1.5 0.8
01:38 13.5 13.4 99 1001.5 16.8 SE 25.9 0.8 0.8
01:39 13.5 13.4 99 1001.7 22.8 SE 25.9 0.8 0.8
01:40 13.5 13.4 99 1001.5 19.7 SE 25.9 1.5 0.8
01:41 13.5 13.4 99 1001.3 19.7 SE 25.9 1.5 0.8
01:42 13.5 13.4 99 1001.6 22.1 SE 25.9 1.5 0.9
01:43 13.5 13.4 99 1001.6 21.3 SE 25.9 1.5 0.9
01:44 13.5 13.4 99 1001.5 31.1 S 31.1 2.3 0.9
01:46 13.5 13.4 99 1001.5 24.4 S 31.1 2.3 1.0
01:47 13.5 13.4 99 1001.5 27.3 S 31.1 1.5 1.1
01:48 13.5 13.4 99 1001.5 21.3 SE 31.1 2.3 1.1
01:49 13.5 13.4 99 1001.4 23.5 SE 31.1 1.5 1.1
01:50 13.5 13.4 99 1001.5 18.3 S 31.1 1.5 1.1
01:51 13.5 13.4 99 1001.5 23.5 S 31.1 1.5 1.1
01:52 13.5 13.4 99 1001.4 26.6 SE 31.1 1.5 1.2
01:53 13.5 13.4 99 1001.4 26.6 SE 31.1 1.5 1.2
01:54 13.5 13.4 99 1001.4 26.6 S 31.1 1.5 1.2
01:55 13.5 13.4 99 1001.2 26.6 E 28.2 1.5 1.3
01:56 13.5 13.4 99 1001.3 27.3 SE 28.2 1.5 1.3
01:57 13.5 13.4 99 1001.1 22.8 S 28.2 1.5 1.3
01:58 13.5 13.4 99 1001.1 19.7 SE 28.2 0.8 1.3
01:59 13.5 13.4 99 1001.0 20.6 SE 27.3 1.5 1.3
02:00 13.5 13.4 99 1001.0 19.7 SE 27.3 1.5 1.4
02:01 13.5 13.4 99 1001.0 19.7 SE 27.3 1.5 1.4
02:02 13.5 13.4 99 1001.0 19.0 SE 27.3 1.5 1.4
02:03 13.5 13.4 99 1000.9 22.8 SE 27.3 2.3 1.4
02:05 13.5 13.4 99 1000.8 21.3 SSE 31.1 1.5 1.5
02:06 13.5 13.4 99 1000.9 15.2 SE 31.1 1.5 1.5
02:07 13.5 13.4 99 1000.9 27.3 S 31.1 1.5 1.5
02:08 13.5 13.4 99 1000.8 27.3 S 31.1 0.8 1.6
02:09 13.5 13.4 99 1000.8 26.6 SE 31.1 1.5 1.6
02:10 13.5 13.4 99 1000.8 25.1 SE 31.1 1.5 1.6
02:11 13.5 13.4 99 1000.7 20.6 SW 31.1 0.8 1.6
02:12 13.5 13.4 99 1000.7 30.4 S 31.1 0.8 1.6
02:13 13.5 13.4 99 1000.8 25.9 S 31.1 1.5 1.6
02:14 13.5 13.4 99 1000.9 29.8 SE 31.1 0.8 1.6
02:15 13.5 13.4 99 1000.8 26.6 SE 30.4 1.5 1.7
02:16 13.6 13.5 99 1000.6 34.2 SE 34.2 1.5 1.8
02:17 13.6 13.5 99 1000.7 24.4 S 34.2 2.3 1.8
02:18 13.6 13.5 99 1000.6 25.9 ENE 34.2 2.3 1.8
02:19 13.6 13.5 99 1000.7 28.2 SE 34.2 2.3 1.9
02:20 13.6 13.5 99 1000.6 21.3 SE 34.2 2.3 1.9
02:21 13.6 13.5 99 1000.6 20.6 N 34.2 2.3 1.9
02:22 13.6 13.5 99 1000.7 20.6 S 34.2 1.5 2.0
02:24 13.6 13.5 99 1000.5 18.3 S 34.2 1.5 2.0
02:25 13.6 13.5 99 1000.6 20.6 S 34.2 1.5 2.0
02:26 13.6 13.5 99 1000.4 26.6 SE 28.2 1.5 2.1
02:27 13.6 13.5 99 1000.3 22.1 S 28.2 2.3 2.1
02:28 13.6 13.5 99 1000.5 30.4 SE 30.4 1.5 2.1
02:29 13.6 13.5 99 1000.5 24.4 S 30.4 1.5 2.1
02:30 13.6 13.5 99 1000.3 27.3 SE 30.4 1.5 2.1
02:31 13.6 13.5 99 1000.3 25.9 SE 30.4 1.5 2.1
02:32 13.6 13.5 99 1000.4 25.1 S 30.4 0.8 2.1
02:33 13.6 13.5 99 1000.4 23.5 SE 30.4 1.5 2.2
02:34 13.6 13.5 99 1000.3 27.3 SE 30.4 1.5 2.2
02:35 13.6 13.5 99 1000.5 22.8 S 30.4 0.8 2.2
02:36 13.6 13.5 99 1000.3 29.8 SE 30.4 0.8 2.3
02:37 13.6 13.5 99 1000.3 22.8 S 30.4 1.5 2.3
02:38 13.6 13.5 99 1000.4 25.1 SE 30.4 0.8 2.3
02:39 13.6 13.5 99 1000.5 28.2 SE 29.8 0.8 2.3
02:40 13.7 13.6 99 1000.6 30.4 SSE 30.4 0.8 2.3
02:41 13.7 13.6 99 1000.7 31.1 SE 31.1 1.5 2.3
02:43 13.7 13.6 99 1000.6 27.3 S 31.1 0.8 2.4
02:44 13.7 13.6 99 1000.6 29.8 S 31.1 1.5 2.5
02:45 13.7 13.6 99 1000.5 32.0 S 32.0 2.3 2.5
02:46 13.7 13.6 99 1000.6 25.1 S 32.0 1.5 2.5
02:47 13.7 13.6 99 1000.3 24.4 SE 32.0 2.3 2.5
02:48 13.7 13.6 99 1000.4 29.8 S 32.0 2.3 2.6
02:49 13.7 13.6 99 1000.5 28.2 SE 32.0 2.3 2.6
02:50 13.7 13.6 99 1000.5 28.2 SE 32.0 1.5 2.6
02:51 13.7 13.6 99 1000.6 24.4 SE 34.9 1.5 2.6
02:52 13.7 13.6 99 1000.6 25.1 S 34.9 0.8 2.6
02:53 13.7 13.6 99 1000.8 30.4 SE 34.9 1.5 2.6
02:54 13.7 13.6 99 1000.3 29.8 SE 34.9 1.5 2.7
02:55 13.7 13.6 99 1000.6 28.2 SW 34.9 1.5 2.8
02:56 13.7 13.6 99 1000.3 34.2 SE 34.9 2.3 2.8
02:57 13.7 13.6 99 1000.6 28.2 S 34.9 3.0 2.8
02:58 13.7 13.6 99 1000.4 29.8 SE 34.9 2.3 2.8
02:59 13.8 13.7 99 1000.3 41.8 SE 41.8 2.3 2.9
03:00 13.8 13.7 99 1000.5 23.5 S 41.8 2.3 2.9
03:01 13.8 13.7 99 1000.3 33.6 SE 41.8 1.5 3.0
03:03 13.8 13.7 99 1000.4 22.1 S 41.8 1.5 3.0
03:04 13.8 13.7 99 1000.2 27.3 SE 41.8 0.8 3.0
03:05 13.8 13.7 99 1000.2 32.0 SE 41.8 0.8 3.0
03:06 13.8 13.7 99 1000.0 26.6 SE 41.8 0.8 3.0
03:07 13.8 13.7 99 1000.2 25.1 SE 41.8 0.0 3.0
03:08 13.8 13.7 99 1000.2 30.4 SE 41.8 0.0 3.0
03:09 13.8 13.7 99 1000.2 26.6 SE 41.8 0.0 3.0
03:10 13.8 13.7 99 1000.1 40.3 S 40.3 0.0 3.0
03:11 13.8 13.7 99 1000.1 23.5 SE 40.3 0.0 3.0
03:12 13.9 13.8 99 1000.3 31.1 SE 40.3 0.8 3.0
03:13 13.9 13.8 99 1000.0 34.2 S 40.3 0.8 3.0
03:14 13.9 13.8 99 1000.1 32.0 SE 40.3 0.8 3.0
03:15 13.9 13.8 99 1000.1 39.6 SE 40.3 1.5 3.1
03:16 13.9 13.8 99 1000.1 26.6 ESE 40.3 1.5 3.1
03:17 14.0 13.9 99 1000.1 37.4 S 40.3 1.5 3.1
03:18 13.9 13.8 99 1000.0 33.6 S 40.3 1.5 3.1
03:19 13.9 13.8 99 999.9 38.0 SE 40.3 2.3 3.2
03:20 14.0 13.9 99 999.8 25.9 SE 39.6 1.5 3.2
03:22 14.0 13.9 99 1000.1 33.6 SE 39.6 2.3 3.3
03:23 14.0 13.9 99 1000.0 28.2 SE 39.6 2.3 3.3
03:24 14.0 13.9 99 1000.0 34.2 SSE 39.6 2.3 3.4
03:25 14.0 13.9 99 999.8 31.1 S 38.0 2.3 3.4
03:26 14.0 13.9 99 999.8 27.3 S 38.0 1.5 3.5
03:27 14.0 13.9 99 999.8 40.3 SE 40.3 1.5 3.5
03:28 14.0 13.9 99 999.9 26.6 S 40.3 2.3 3.5
03:29 14.0 13.9 99 999.8 24.4 S 40.3 2.3 3.6
03:30 14.0 13.9 99 999.8 32.0 SE 40.3 2.3 3.6
03:31 14.0 13.9 99 1000.1 27.3 SE 40.3 2.3 3.6
03:32 14.0 13.9 99 1000.2 38.7 SE 40.3 2.3 3.7
03:33 14.0 13.9 99 999.8 40.3 SE 40.3 3.0 3.8
03:34 14.0 13.9 99 1000.1 37.4 SE 40.3 2.3 3.8
03:35 14.0 13.9 99 1000.0 31.1 S 40.3 2.3 3.8
03:36 14.0 13.9 99 1000.1 23.5 S 40.3 3.0 3.8
03:37 14.0 13.9 99 999.9 37.4 SE 40.3 3.8 4.0
03:38 14.0 13.9 99 1000.0 30.4 SE 40.3 3.0 4.2
03:39 14.0 13.9 99 999.9 30.4 SE 40.3 4.5 4.2
03:41 14.0 13.9 99 999.7 31.1 S 40.3 5.3 4.3
03:42 14.0 13.9 99 999.8 25.9 SE 40.3 3.8 4.3
03:43 14.0 13.9 99 999.8 31.1 SSE 37.4 3.8 4.4
03:44 14.0 13.9 99 999.7 37.4 S 37.4 3.0 4.4
03:45 14.0 13.9 99 999.9 37.4 S 37.4 3.0 4.5
03:46 14.0 13.9 99 999.6 38.7 SSW 38.7 2.3 4.5
03:47 14.0 13.9 99 999.6 38.7 SSW 38.7 3.0 4.5
03:48 14.0 13.9 99 999.5 30.4 E 38.7 2.3 4.5
03:49 14.0 13.9 99 999.7 35.8 SE 38.7 2.3 4.6
03:50 14.0 13.9 99 999.7 32.7 SE 38.7 1.5 4.6
03:51 14.0 13.9 99 999.7 28.2 S 38.7 1.5 4.6
03:52 14.0 13.9 99 999.4 32.0 SE 38.7 1.5 4.7
03:53 14.0 13.9 99 999.6 35.8 S 38.7 1.5 4.7
03:54 14.0 13.9 99 999.6 31.1 S 38.7 0.8 4.7
03:55 14.0 13.9 99 999.5 39.6 SE 39.6 0.8 4.7
03:56 14.1 14.0 99 999.8 38.0 SE 39.6 0.8 4.7
03:57 14.0 13.9 99 999.3 27.3 SE 39.6 0.8 4.7
03:58 14.0 13.9 99 999.4 25.9 S 39.6 0.8 4.7
04:00 14.0 13.9 99 999.6 36.5 SE 39.6 0.8 4.7
04:01 14.0 13.9 99 999.5 37.4 S 39.6 0.8 4.7
04:02 14.0 13.9 99 999.5 28.9 S 39.6 0.0 4.7
04:03 14.0 13.9 99 999.7 32.7 SE 39.6 0.0 4.7
04:04 14.1 14.0 99 999.8 41.2 SE 41.2 0.0 4.8
04:05 14.0 13.9 99 999.5 34.2 NW 41.2 0.8 4.8
04:06 14.0 13.9 99 999.5 34.2 NW 41.2 0.8 4.8
04:07 14.0 13.9 99 999.7 37.4 S 41.2 0.8 4.8
04:08 14.1 14.0 99 999.6 38.0 SW 41.2 2.3 4.9
04:09 14.1 14.0 99 999.6 32.0 S 41.2 3.0 5.0
04:10 14.1 14.0 99 999.6 39.6 S 41.2 2.3 5.0
04:11 14.1 14.0 99 999.6 31.1 S 41.2 3.0 5.0
04:12 14.1 14.0 99 999.4 30.4 ESE 41.2 3.0 5.0
04:13 14.1 14.0 99 999.5 34.2 S 41.2 1.5 5.0
04:14 14.0 13.9 99 999.6 31.1 SE 41.2 0.8 5.0
04:15 14.1 14.0 99 999.3 36.5 S 39.6 0.8 5.0
04:16 14.0 13.9 99 999.4 42.5 SE 42.5 0.0 5.0
04:17 14.2 14.1 99 999.6 37.4 S 42.5 0.0 5.1
04:19 14.0 13.9 99 999.6 27.3 S 42.5 0.8 5.1
04:20 14.0 13.9 99 999.3 40.3 SE 42.5 0.8 5.1
04:21 14.0 13.9 99 999.8 39.6 SE 42.5 0.8 5.2
04:22 14.0 13.9 99 1000.2 42.5 SE 42.5 1.5 5.2
04:23 14.0 13.9 99 999.9 42.5 S 42.5 0.8 5.2
04:24 14.0 13.9 99 999.8 29.8 S 42.5 0.8 5.2
04:25 14.0 13.9 99 999.6 44.1 SE 44.1 2.3 5.3
04:26 14.0 13.9 99 999.7 43.4 S 44.1 2.3 5.3
04:27 14.0 13.9 99 999.7 33.6 SE 44.1 1.5 5.3
04:28 14.0 13.9 99 999.5 29.8 SE 44.1 1.5 5.3
04:29 14.0 13.9 99 999.3 38.0 SE 44.1 1.5 5.3
04:30 14.0 13.9 99 999.5 33.6 SW 44.1 0.0 5.3
04:31 14.0 13.9 99 999.6 36.5 SW 44.1 0.0 5.3
04:32 14.0 13.9 99 999.8 35.8 S 44.1 0.0 5.3
04:33 14.1 14.0 99 999.5 30.4 SE 44.1 0.0 5.3
04:34 14.0 13.9 99 999.8 26.6 SSE 44.1 0.0 5.3
04:35 14.1 14.0 99 999.4 34.9 SE 43.4 0.8 5.4
04:36 14.1 14.0 99 999.4 36.5 SE 38.0 0.8 5.4
04:38 14.1 14.0 99 999.9 41.8 E 47.2 0.8 5.4
04:39 14.2 14.1 99 999.5 34.9 SE 47.2 0.8 5.4
04:40 14.2 14.1 99 999.7 27.3 S 47.2 0.0 5.4
04:41 14.2 14.1 99 999.5 25.9 SE 47.2 0.8 5.4
04:42 14.2 14.1 99 999.2 33.6 ESE 47.2 0.8 5.4
04:43 14.2 14.1 99 999.5 36.5 SE 47.2 0.8 5.5
04:44 14.2 14.1 99 999.6 35.8 SE 47.2 1.5 5.5
04:45 14.2 14.1 99 999.9 35.8 SE 47.2 2.3 5.5
04:46 14.2 14.1 99 1000.0 32.7 SE 47.2 2.3 5.6
04:47 14.2 14.1 99 999.9 34.2 SE 47.2 2.3 5.6
04:48 14.3 14.2 99 999.8 29.8 SE 41.8 2.3 5.7
04:49 14.3 14.2 99 999.7 24.4 SE 36.5 2.3 5.7
04:50 14.3 14.2 99 999.4 32.7 SE 36.5 1.5 5.7
04:51 14.3 14.2 99 999.6 35.8 SE 36.5 1.5 5.7
04:52 14.3 14.2 99 1000.0 39.6 SE 39.6 1.5 5.8
04:53 14.3 14.2 99 999.8 34.9 S 39.6 2.3 5.8
04:54 14.3 14.2 99 1000.0 35.8 S 39.6 2.3 5.9
04:55 14.3 14.2 99 999.7 38.7 SE 39.6 3.0 6.0
04:57 14.3 14.2 99 1000.0 40.3 SE 40.3 3.8 6.1
04:58 14.3 14.2 99 999.9 28.2 S 40.3 3.8 6.2
04:59 14.3 14.2 99 1000.1 38.7 SE 40.3 3.8 6.2
05:00 14.3 14.2 99 999.7 39.6 S 40.3 3.8 6.2
05:01 14.2 14.1 99 999.8 37.4 SE 40.3 3.0 6.4
05:02 14.3 14.2 99 1000.2 41.8 SE 41.8 3.8 6.4
05:03 14.3 14.2 99 999.7 44.1 SE 44.1 3.8 6.6
05:04 14.3 14.2 99 999.7 41.2 S 44.1 5.3 6.7
05:05 14.3 14.2 99 1000.0 31.1 SE 44.1 6.0 6.8
05:06 14.4 14.3 99 999.8 38.0 SE 44.1 6.8 6.9
05:07 14.4 14.3 99 999.7 38.7 SE 44.1 6.0 6.9
05:08 14.4 14.3 99 999.9 32.0 SE 44.1 6.0 7.0
05:09 14.4 14.3 99 999.7 37.4 SE 44.1 5.3 7.1
05:10 14.4 14.3 99 999.9 48.8 SE 48.8 4.5 7.1
05:11 14.4 14.3 99 1000.0 38.0 S 48.8 6.0 7.4
05:12 14.4 14.3 99 1000.0 32.7 S 48.8 6.0 7.4
05:13 14.4 14.3 99 1000.1 35.8 S 48.8 7.6 7.6
05:14 14.4 14.3 99 1000.1 31.1 SE 48.8 6.8 7.6
05:15 14.4 14.3 99 1000.3 32.0 S 48.8 7.6 7.8
05:16 14.4 14.3 99 1000.2 32.0 SE 48.8 6.0 7.9
05:17 14.4 14.3 99 1000.3 34.2 SE 48.8 6.8 7.9
05:18 14.4 14.3 99 1000.2 38.7 SE 48.8 5.3 8.0
05:19 14.4 14.3 99 1000.2 29.8 SE 48.8 4.5 8.1
05:20 14.4 14.3 99 1000.0 41.8 SSW 41.8 3.8 8.1
05:21 14.4 14.3 99 1000.0 41.2 SE 41.8 4.5 8.2
05:22 14.4 14.3 99 999.8 28.9 SE 41.8 3.8 8.3
05:23 14.4 14.3 99 999.7 38.7 SE 41.8 3.8 8.4
05:24 14.4 14.3 99 1000.0 34.2 SSW 41.8 5.3 8.5
05:26 14.4 14.3 99 1000.4 27.3 SE 41.8 4.5 8.6
05:27 14.4 14.3 99 1000.4 41.8 SE 41.8 4.5 8.7
05:28 14.4 14.3 99 1000.5 25.1 S 41.8 4.5 8.7
05:29 14.4 14.3 99 1000.6 30.4 SE 41.8 3.8 8.8
05:30 14.4 14.3 99 1000.4 25.1 SW 41.8 2.3 8.8
05:31 14.4 14.3 99 1000.5 22.1 S 41.8 2.3 8.8
05:32 14.4 14.3 99 1000.5 31.1 SW 41.8 1.5 8.8
05:33 14.4 14.3 99 1000.4 33.6 SE 41.8 1.5 8.8
05:34 14.4 14.3 99 1000.4 32.7 SE 41.8 0.8 8.8
05:35 14.4 14.3 99 1000.4 35.8 SE 41.8 1.5 8.9
05:36 14.4 14.3 99 1000.3 32.7 SE 41.8 1.5 8.9
05:37 14.4 14.3 99 1000.1 32.0 SE 41.8 2.3 8.9
05:38 14.4 14.3 99 1000.0 32.7 SE 35.8 1.5 8.9
05:39 14.5 14.4 99 1000.1 34.9 SE 35.8 1.5 8.9
05:40 14.4 14.3 99 1000.4 46.3 SE 46.3 0.8 9.0
05:41 14.5 14.4 99 1000.2 38.7 SE 46.3 1.5 9.0
05:42 14.6 14.5 99 1000.8 31.1 SE 46.3 0.8 9.0
05:43 14.6 14.5 99 1000.5 33.6 SE 46.3 0.8 9.0
05:45 14.6 14.5 99 1000.6 37.4 S 46.3 0.8 9.0
05:46 14.5 14.4 99 1000.5 28.9 SE 46.3 0.0 9.1
05:47 14.5 14.4 99 1000.7 30.4 S 46.3 0.8 9.1
05:48 14.5 14.4 99 1000.4 32.0 SE 46.3 0.8 9.1
05:49 14.5 14.4 99 1000.5 27.3 SW 46.3 1.5 9.2
05:50 14.5 14.4 99 1000.5 27.3 SW 46.3 2.3 9.2
05:51 14.5 14.4 99 1000.6 28.9 S 38.7 3.0 9.3
05:52 14.5 14.4 99 1000.6 32.0 S 37.4 2.3 9.3
05:53 14.5 14.4 99 1000.7 25.1 SE 37.4 3.8 9.4
05:54 14.5 14.4 99 1000.8 20.6 S 37.4 3.8 9.4
05:55 14.5 14.4 99 1000.7 32.7 SE 37.4 3.8 9.6
05:56 14.5 14.4 99 1000.6 22.1 SE 32.7 3.8 9.6
05:57 14.5 14.4 99 1000.5 25.1 S 32.7 4.5 9.6
05:58 14.5 14.4 99 1000.5 25.9 S 32.7 3.8 9.7
05:59 14.5 14.4 99 1000.5 33.6 S 33.6 3.8 9.8
06:00 14.5 14.4 99 1000.8 28.9 S 33.6 3.8 9.9
06:01 14.5 14.4 99 1000.6 30.4 SE 33.6 3.8 10.0
06:02 14.5 14.4 99 1000.3 27.3 SE 33.6 4.5 10.1
06:04 14.5 14.4 99 1000.5 30.4 SE 33.6 3.8 10.1
06:05 14.5 14.4 99 1000.6 35.8 S 35.8 3.8 10.2
06:06 14.5 14.4 99 1000.7 25.1 S 35.8 3.8 10.2
06:07 14.5 14.4 99 1000.4 30.4 SE 35.8 2.3 10.3
06:08 14.5 14.4 99 1000.6 22.8 S 35.8 2.3 10.3
06:09 14.5 14.4 99 1000.6 22.8 S 35.8 2.3 10.3
06:10 14.5 14.4 99 1000.8 26.6 S 35.8 1.5 10.3
06:11 14.5 14.4 99 1000.7 38.7 SW 38.7 1.5 10.3
06:12 14.5 14.4 99 1000.6 28.2 SE 38.7 1.5 10.3
06:13 14.5 14.4 99 1000.4 34.2 SE 38.7 1.5 10.4
06:14 14.5 14.4 99 1000.5 34.9 SE 38.7 1.5 10.4
06:15 14.5 14.4 99 1000.2 24.4 SE 38.7 2.3 10.5
06:16 14.5 14.4 99 1000.4 32.7 SE 38.7 1.5 10.5
06:17 14.5 14.4 99 1000.3 22.8 SE 38.7 3.0 10.6
06:18 14.5 14.4 99 1000.5 29.8 SSW 38.7 2.3 10.6
06:19 14.5 14.4 99 1000.5 22.8 SE 38.7 3.0 10.6
06:20 14.5 14.4 99 1000.4 37.4 S 38.7 2.3 10.8
06:21 14.5 14.4 99 1000.6 33.6 SE 37.4 3.8 10.8
06:23 14.6 14.5 99 1000.6 38.7 SSW 38.7 2.3 10.8
06:24 14.5 14.4 99 1000.6 22.1 SE 38.7 2.3 11.0
06:25 14.5 14.4 99 1000.5 31.1 NE 38.7 3.8 11.0
06:26 14.5 14.4 99 1000.5 36.5 S 38.7 3.0 11.1
06:27 14.5 14.4 99 1000.5 29.8 SE 38.7 3.8 11.1
06:28 14.5 14.4 99 1000.3 34.9 S 38.7 3.8 11.2
06:29 14.5 14.4 99 1000.6 35.8 S 38.7 4.5 11.2
06:30 14.5 14.4 99 1000.7 27.3 S 38.7 3.0 11.2
06:31 14.5 14.4 99 1000.3 35.8 S 38.7 3.0 11.3
06:32 14.5 14.4 99 1000.5 34.2 SE 38.7 3.0 11.3
06:33 14.5 14.4 99 1000.5 26.6 SE 38.7 3.8 11.4
06:34 14.5 14.4 99 1000.5 28.2 S 37.4 2.3 11.4
06:35 14.5 14.4 99 1000.6 22.1 S 36.5 2.3 11.4
06:36 14.5 14.4 99 1000.6 31.1 S 36.5 2.3 11.5
06:37 14.5 14.4 99 1000.8 29.8 SE 35.8 1.5 11.5
06:38 14.5 14.4 99 1000.8 34.9 S 35.8 1.5 11.6
06:39 14.5 14.4 99 1000.7 32.0 S 35.8 2.3 11.6
06:40 14.5 14.4 99 1000.7 29.8 S 35.8 3.0 11.7
06:42 14.5 14.4 99 1000.8 33.6 S 34.9 2.3 11.7
06:43 14.3 14.2 99 1000.5 30.4 S 34.9 2.3 11.7
06:44 14.5 14.4 99 1000.8 28.2 SE 34.9 2.3 11.8
06:45 14.5 14.4 99 1000.6 28.9 S 34.9 2.3 11.8
06:46 14.5 14.4 99 1000.8 22.8 S 34.9 2.3 11.9
06:47 14.5 14.4 99 1000.7 32.0 SE 34.9 3.0 11.9
06:48 14.5 14.4 99 1000.7 28.2 S 34.9 3.0 12.0
06:49 14.5 14.4 99 1000.6 32.0 SE 33.6 3.0 12.0
06:50 14.5 14.4 99 1000.5 32.7 SSW 33.6 2.3 12.0
06:51 14.5 14.4 99 1000.8 34.2 S 34.2 3.0 12.2
06:52 14.5 14.4 99 1000.8 34.2 WSW 34.2 3.8 12.2
06:53 14.5 14.4 99 1000.5 26.6 S 34.2 3.8 12.3
06:54 14.5 14.4 99 1000.7 27.3 SE 34.2 3.8 12.3
06:55 14.5 14.4 99 1000.8 27.3 S 34.2 3.8 12.4
06:56 14.5 14.4 99 1000.7 22.8 SE 34.2 4.5 12.5
06:57 14.4 14.3 99 1000.5 28.2 SE 34.2 3.0 12.5
06:58 14.5 14.4 99 1000.7 28.2 SE 34.2 3.0 12.6
06:59 14.4 14.3 99 1000.6 22.8 SE 34.2 3.0 12.7
07:01 14.4 14.3 99 1000.7 33.6 S 34.2 3.0 12.7
07:02 14.4 14.3 99 1000.7 27.3 S 33.6 3.0 12.8
07:03 14.4 14.3 99 1000.7 25.9 SE 33.6 3.0 12.9
07:04 14.4 14.3 99 1000.7 25.1 SE 33.6 3.0 12.9
07:05 14.4 14.3 99 1000.6 34.9 SE 34.9 1.5 12.9
07:06 14.4 14.3 99 1000.7 32.0 SE 34.9 2.3 12.9
07:08 14.5 14.4 99 1000.7 30.4 SE 34.9 3.0 13.1
07:09 14.5 14.4 99 1000.8 28.2 SE 34.9 3.0 13.1
07:10 14.5 14.4 99 1000.6 36.5 S 36.5 3.0 13.2
07:11 14.5 14.4 99 1000.6 28.9 SE 36.5 3.0 13.2
07:12 14.5 14.4 99 1000.6 32.0 S 36.5 3.8 13.3
07:13 14.5 14.4 99 1000.6 32.0 S 36.5 3.0 13.3
07:14 14.5 14.4 99 1000.7 34.2 SE 36.5 3.0 13.4
07:15 14.5 14.4 99 1000.8 34.2 S 36.5 3.0 13.4
07:16 14.5 14.4 99 1000.7 41.2 S 41.2 3.8 13.5
07:17 14.5 14.4 99 1000.7 28.9 SE 41.2 4.5 13.6
07:18 14.5 14.4 99 1000.7 30.4 SE 41.2 3.8 13.6
07:19 14.5 14.4 99 1000.8 19.7 S 41.2 4.5 13.7
07:20 14.5 14.4 99 1000.6 22.1 SE 41.2 4.5 13.9
07:21 14.4 14.3 99 1000.7 25.9 SE 41.2 4.5 13.9
07:22 14.4 14.3 99 1000.8 28.2 SE 41.2 3.0 13.9
07:24 14.5 14.4 99 1000.6 24.4 SE 41.2 3.0 14.1
07:25 14.5 14.4 99 1001.0 41.8 SE 41.8 4.5 14.1
07:26 14.5 14.4 99 1000.8 32.0 S 41.8 3.0 14.2
07:27 14.5 14.4 99 1000.7 26.6 S 41.8 3.8 14.2
07:28 14.5 14.4 99 1000.7 25.9 SW 41.8 3.8 14.2
07:29 14.5 14.4 99 1000.8 22.1 S 41.8 3.8 14.3
07:30 14.5 14.4 99 1000.8 24.4 SE 41.8 3.0 14.4
07:31 14.5 14.4 99 1000.8 34.9 SE 41.8 4.5 14.6
07:32 14.5 14.4 99 1000.9 30.4 SE 41.8 4.5 14.6
07:33 14.5 14.4 99 1000.9 32.7 ENE 41.8 6.0 14.7
07:34 14.5 14.4 99 1000.8 34.2 SE 41.8 6.0 14.8
07:35 14.5 14.4 99 1000.9 22.1 SE 41.8 6.0 14.9
07:36 14.5 14.4 99 1000.8 22.1 S 34.9 5.3 15.1
07:38 14.5 14.4 99 1000.8 28.2 SE 34.9 5.3 15.2
07:39 14.5 14.4 99 1000.8 32.7 S 34.9 5.3 15.4
07:40 14.5 14.4 99 1000.8 29.8 S 34.9 6.0 15.5
07:41 14.5 14.4 99 1000.7 32.7 S 34.2 6.8 15.6
07:42 14.5 14.4 99 1000.7 32.7 S 34.2 5.3 15.6
07:43 14.5 14.4 99 1000.7 30.4 S 34.2 6.0 15.7
07:44 14.5 14.4 99 1000.7 27.3 S 32.7 6.0 15.8
07:45 14.5 14.4 99 1000.6 19.0 S 32.7 6.0 15.9
07:46 14.5 14.4 99 1000.6 25.1 SE 32.7 6.0 16.0
07:47 14.5 14.4 99 1000.4 28.2 S 32.7 6.0 16.1
07:48 14.5 14.4 99 1000.8 34.2 S 34.2 5.3 16.3
07:49 14.6 14.5 99 1000.6 30.4 SE 34.2 7.6 16.6
07:50 14.6 14.5 99 1000.6 25.9 S 34.2 8.3 16.6
07:52 14.6 14.5 99 1000.8 28.9 SE 34.2 8.3 17.1
07:53 14.6 14.5 99 1000.6 23.5 S 34.2 12.1 17.3
07:54 14.6 14.5 99 1000.7 27.3 SE 34.2 10.6 17.3
07:55 14.6 14.5 99 1000.7 25.1 S 34.2 9.1 17.5
07:56 14.6 14.5 99 1000.8 27.3 SE 34.2 9.8 17.5
07:57 14.6 14.5 99 1000.7 27.3 E 34.2 10.6 17.6
07:58 14.6 14.5 99 1000.7 23.5 ESE 34.2 7.6 17.8
07:59 14.6 14.5 99 1000.6 28.2 S 33.6 7.6 18.0
08:00 14.6 14.5 99 1000.7 29.8 SSE 33.6 8.3 18.1
08:01 14.6 14.5 99 1000.8 29.8 SSE 33.6 7.5 18.1
08:02 14.6 14.5 99 1000.8 28.9 SE 33.6 8.3 18.5
08:03 14.6 14.5 99 1000.8 28.9 SE 29.8 8.3 18.5
08:04 14.7 14.6 99 1000.9 28.2 SE 32.0 8.3 18.8
08:05 14.7 14.6 99 1000.9 40.3 SSW 40.3 9.1 18.9
08:06 14.7 14.6 99 1000.7 31.1 S 40.3 9.8 19.0
08:08 14.7 14.6 99 1000.8 26.6 S 40.3 7.6 19.3
08:09 14.7 14.6 99 1000.9 28.2 SE 40.3 9.1 19.5
08:10 14.7 14.6 99 1000.9 29.8 SW 40.3 8.3 19.6
08:11 14.6 14.5 99 1001.0 25.9 SE 40.3 8.3 19.7
08:12 14.7 14.6 99 1001.0 22.1 SSE 40.3 7.6 19.7
08:13 14.7 14.6 99 1001.2 28.9 SE 40.3 9.8 19.9
08:14 14.7 14.6 99 1000.9 22.8 SE 40.3 7.6 20.1
08:15 14.6 14.5 99 1001.0 24.4 SW 40.3 7.6 20.2
08:16 14.6 14.5 99 1000.9 23.5 S 31.1 6.8 20.3
08:17 14.6 14.5 99 1001.2 31.1 SE 31.1 8.3 20.3
08:18 14.6 14.5 99 1001.0 34.9 S 34.9 6.8 20.7
08:19 14.7 14.6 99 1001.2 34.9 SW 34.9 8.3 20.8
08:20 14.6 14.5 99 1001.2 31.1 S 34.9 8.3 21.2
08:21 14.6 14.5 99 1001.0 32.0 SE 34.9 12.1 21.4
08:22 14.6 14.5 99 1001.1 30.4 SE 34.9 12.1 21.5
08:24 14.6 14.5 99 1001.0 28.9 SE 34.9 12.9 22.0
08:25 14.6 14.5 99 1001.0 30.4 SE 34.9 15.1 22.2
08:26 14.6 14.5 99 1001.0 26.6 S 34.9 12.8 22.4
08:27 14.6 14.5 99 1001.2 22.8 SE 34.9 12.1 22.5
08:28 14.6 14.5 99 1001.1 35.8 SE 35.8 11.3 22.7
08:29 14.6 14.5 99 1001.2 37.4 SSE 37.4 12.8 22.8
08:30 14.6 14.5 99 1001.0 30.4 S 37.4 11.3 23.2
08:31 14.6 14.5 99 1001.2 31.1 S 37.4 11.3 23.4
08:32 14.6 14.5 99 1001.2 29.8 SE 37.4 12.1 23.6
08:33 14.7 14.6 99 1001.2 25.1 SE 37.4 15.1 23.8
08:34 14.7 14.6 99 1001.1 34.2 S 37.4 13.6 24.1
08:35 14.7 14.6 99 1001.0 26.6 SW 37.4 13.6 24.3
08:36 14.7 14.6 99 1001.1 28.2 S 37.4 12.8 24.5
08:37 14.7 14.6 99 1001.0 31.1 E 37.4 13.6 24.8
08:39 14.7 14.6 99 1001.0 24.4 SE 34.2 11.3 25.1
08:40 14.7 14.6 99 1001.1 35.8 SSE 39.6 11.3 25.5
08:41 14.7 14.6 99 1000.9 32.0 S 39.6 14.3 25.6
08:42 14.7 14.6 99 1001.1 28.9 S 39.6 12.8 25.7
08:43 14.7 14.6 99 1000.9 32.7 SE 39.6 11.3 25.9
08:44 14.7 14.6 99 1001.1 29.8 S 39.6 12.1 26.1
08:45 14.7 14.6 99 1000.9 25.1 S 39.6 14.4 26.3
08:46 14.7 14.6 99 1001.1 26.6 SE 39.6 11.3 26.5
08:47 14.7 14.6 99 1001.1 28.2 S 39.6 10.6 26.6
08:48 14.7 14.6 99 1001.0 30.4 SE 39.6 10.6 26.7
08:49 14.7 14.6 99 1001.0 33.6 S 39.6 11.3 26.8
08:50 14.7 14.6 99 1001.1 28.2 SE 35.8 7.6 27.0
08:51 14.7 14.6 99 1001.0 28.2 SE 33.6 7.6 27.1
08:52 14.7 14.6 99 1000.9 28.2 S 33.6 7.6 27.3
08:54 14.7 14.6 99 1001.0 25.9 SE 33.6 6.8 27.5
08:55 14.7 14.6 99 1000.9 33.6 S 33.6 6.8 27.6
08:56 14.8 14.7 99 1001.0 26.6 SE 33.6 6.8 27.8
08:57 14.8 14.7 99 1001.0 26.6 SE 33.6 8.3 27.8
08:58 14.7 14.6 99 1001.0 26.6 S 33.6 7.6 28.0
08:59 14.8 14.7 99 1001.0 20.6 SE 33.6 7.6 28.1
09:00 14.8 14.7 99 1001.2 31.1 SE 33.6 7.6 28.2
09:01 14.8 14.7 99 1000.9 31.1 SE 33.6 7.6 28.2
09:02 14.8 14.7 99 1000.9 34.2 SSW 34.9 6.8 28.5
09:03 14.8 14.7 99 1001.2 36.5 SE 36.5 6.0 28.5
09:04 14.8 14.7 99 1001.0 36.5 S 36.5 6.0 28.7
09:05 14.8 14.7 99 1001.0 33.6 S 36.5 8.3 28.8
09:06 14.8 14.7 99 1001.0 25.9 S 36.5 7.6 28.9
09:07 14.8 14.7 99 1000.8 28.9 SE 36.5 6.8 29.0
09:08 14.8 14.7 99 1000.9 34.9 S 36.5 6.8 29.2
09:09 14.8 14.7 99 1001.0 27.3 SW 36.5 9.1 29.3
09:10 14.8 14.7 99 1001.0 32.7 SE 36.5 7.6 29.5
09:11 14.8 14.7 99 1001.0 33.6 S 36.5 7.6 29.5
09:12 14.8 14.7 99 1001.0 26.6 S 36.5 7.6 29.7
09:13 14.8 14.7 99 1001.0 32.7 S 36.5 8.3 29.8
09:14 14.8 14.7 99 1000.9 29.8 S 34.9 6.0 30.0
09:16 14.8 14.7 99 1000.9 35.8 SE 37.4 9.1 30.6
09:17 14.8 14.7 99 1000.8 30.4 SE 37.4 12.1 30.7
09:18 14.8 14.7 99 1000.9 34.2 S 37.4 11.3 30.9
09:19 14.9 14.8 99 1000.8 33.6 S 37.4 12.9 30.9
09:20 14.9 14.8 99 1000.9 32.0 SE 37.4 11.3 31.1
09:21 14.9 14.8 99 1000.8 31.1 S 37.4 11.3 31.2
09:22 14.9 14.8 99 1000.8 39.6 SE 39.6 7.6 31.2
09:23 14.9 14.8 99 1000.8 33.6 S 39.6 6.8 31.3
09:24 14.9 14.8 99 1000.7 29.8 SE 39.6 5.3 31.4
09:25 14.9 14.8 99 1000.8 34.2 S 39.6 6.8 31.5
09:26 14.9 14.8 99 1000.9 30.4 NW 39.6 4.5 31.6
09:27 14.9 14.8 99 1000.9 39.6 S 39.6 5.3 31.7
09:28 15.0 14.9 99 1000.6 26.6 S 39.6 5.3 31.8
09:29 15.0 14.9 99 1000.8 31.1 SE 39.6 5.3 31.9
09:31 15.0 14.9 99 1001.0 29.8 S 39.6 4.5 32.1
09:32 15.0 14.9 99 1000.8 27.3 SW 39.6 5.3 32.3
09:33 15.0 14.9 99 1000.8 27.3 SW 39.6 6.8 32.3
09:34 15.0 14.9 99 1000.8 28.9 SE 39.6 6.8 32.3
09:35 15.0 14.9 99 1000.9 34.9 SE 39.6 4.5 32.4
09:36 15.0 14.9 99 1000.7 29.8 SE 39.6 5.3 32.4
09:37 15.0 14.9 99 1000.7 32.0 SE 39.6 4.5 32.4
09:38 15.0 14.9 99 1001.4 30.4 S 39.6 3.0 32.5
09:39 15.0 14.9 99 1000.6 38.7 SE 46.3 3.0 32.6
09:40 15.0 14.9 99 1000.8 33.6 SE 46.3 3.8 32.7
09:41 15.0 14.9 99 1000.9 28.9 SE 46.3 4.5 32.8
09:42 15.0 14.9 99 1000.7 34.2 S 46.3 4.5 32.9
09:43 15.0 14.9 99 1000.8 28.9 SE 46.3 5.3 32.9
09:44 15.0 14.9 99 1000.5 38.0 S 46.3 4.5 33.0
09:46 15.0 14.9 99 1000.6 33.6 S 46.3 3.8 33.1
09:47 15.1 15.0 99 1000.8 40.3 SE 46.3 3.0 33.1
09:48 15.1 15.0 99 1000.8 40.3 SE 46.3 1.5 33.1
09:49 15.0 14.9 99 1000.6 30.4 SE 42.5 1.5 33.1
09:50 15.1 15.0 99 1000.9 28.2 SE 42.5 1.5 33.1
09:51 15.1 15.0 99 1000.6 34.2 SE 40.3 0.8 33.1
09:52 15.1 15.0 99 1000.6 31.1 S 40.3 1.5 33.2
09:53 15.1 15.0 99 1000.7 27.3 S 40.3 3.0 33.3
09:54 15.1 15.0 99 1000.5 32.0 SSE 40.3 3.0 33.4
09:55 15.1 15.0 99 1000.6 33.6 S 40.3 3.0 33.4
09:56 15.1 15.0 99 1000.6 34.2 S 40.3 3.0 33.4
09:57 15.1 15.0 99 1000.7 35.8 S 40.3 3.0 33.4
09:58 15.1 15.0 99 1000.7 32.7 SE 40.3 0.8 33.4
09:59 15.1 15.0 99 1000.8 28.2 S 38.7 0.8 33.4
10:00 15.1 15.0 99 1001.0 34.9 S 38.7 0.8 33.5
10:02 15.1 15.0 99 1000.8 37.4 SW 37.4 0.8 33.5
10:03 15.1 15.0 99 1000.6 38.0 S 38.0 0.8 33.5
10:04 15.1 15.0 99 1000.6 25.9 SE 38.0 0.8 33.5
10:05 15.1 15.0 99 1000.7 33.6 S 38.0 0.0 33.5
10:06 15.2 15.1 99 1000.8 40.3 S 40.3 0.0 33.5
10:07 15.1 15.0 99 1000.6 32.7 SW 40.3 0.0 33.5
10:08 15.2 15.1 99 1000.6 28.9 SE 40.3 0.0 33.5
10:09 15.2 15.1 99 1000.7 27.3 S 40.3 0.8 33.5
10:10 15.2 15.1 99 1000.6 28.9 SE 40.3 0.8 33.5
10:11 15.2 15.1 99 1000.6 27.3 SE 40.3 0.8 33.5
10:12 15.2 15.1 99 1000.4 37.4 S 40.3 0.8 33.5
10:13 15.2 15.1 99 1000.6 25.1 SE 40.3 0.8 33.5
10:14 15.2 15.1 99 1000.5 28.2 SW 40.3 0.8 33.5
10:15 15.2 15.1 99 1000.6 31.1 SE 40.3 0.0 33.5
10:16 15.2 15.1 99 1000.7 29.8 S 40.3 0.0 33.5
10:18 15.2 15.1 99 1000.8 31.1 SE 37.4 0.0 33.5
10:19 15.2 15.1 99 1000.8 34.9 SE 37.4 0.0 33.5
10:20 15.2 15.1 99 1000.6 30.4 SE 37.4 0.0 33.5
10:21 15.2 15.1 99 1000.9 27.3 SSW 37.4 0.0 33.5
10:22 15.3 15.2 99 1000.8 33.6 SE 37.4 0.0 33.5
10:23 15.3 15.2 99 1000.7 34.9 E 37.4 0.0 33.5
10:24 15.3 15.2 99 1000.6 34.2 S 37.4 0.0 33.5
10:25 15.3 15.2 99 1000.4 35.8 S 37.4 0.0 33.5
10:26 15.3 15.2 99 1000.7 33.6 S 37.4 0.0 33.5
10:27 15.3 15.2 99 1000.7 33.6 S 37.4 0.0 33.5
10:28 15.3 15.2 99 1000.7 32.7 E 37.4 0.8 33.6
10:29 15.3 15.2 99 1000.7 40.3 S 40.3 0.8 33.6
10:30 15.3 15.2 99 1000.6 35.8 SE 40.3 0.8 33.6
10:31 15.3 15.2 99 1000.7 35.8 S 40.3 0.8 33.6
10:33 15.3 15.2 99 1000.7 28.2 WSW 40.3 0.0 33.6
10:34 15.3 15.2 99 1001.0 26.6 E 40.3 0.0 33.6
10:35 15.3 15.2 99 1000.8 32.0 S 40.3 0.0 33.6
10:36 15.3 15.2 99 1001.0 34.9 SE 40.3 0.0 33.6
10:37 15.3 15.2 99 1000.8 28.2 SE 40.3 0.0 33.6
10:38 15.3 15.2 99 1000.9 33.6 S 40.3 0.8 33.6
10:39 15.3 15.2 99 1000.9 33.6 S 35.8 0.8 33.6
10:40 15.3 15.2 99 1000.7 32.0 SSW 35.8 0.8 33.6
10:41 15.3 15.2 99 1000.8 38.0 SE 38.0 0.8 33.6
10:42 15.2 15.1 99 1000.7 33.6 SE 38.0 0.8 33.6
10:43 15.2 15.1 99 1000.7 33.6 SE 38.0 0.0 33.6
10:44 15.4 15.3 99 1000.7 31.1 SSE 38.0 0.0 33.6
10:45 15.4 15.3 99 1000.7 33.6 S 38.0 0.0 33.6
10:46 15.4 15.3 99 1000.8 35.8 SE 38.0 0.0 33.6
10:47 15.4 15.3 99 1000.6 30.4 S 38.0 0.0 33.6
10:48 15.4 15.3 99 1000.7 26.6 SE 38.0 0.8 33.7
10:50 15.4 15.3 99 1000.7 39.6 S 39.6 0.8 33.7
10:51 15.4 15.3 99 1000.6 25.9 SE 39.6 0.8 33.7
10:52 15.4 15.3 99 1000.5 41.2 SE 41.2 0.8 33.7
10:53 15.4 15.3 99 1000.8 36.5 S 41.2 0.0 33.7
10:54 15.5 15.4 99 1000.8 33.6 S 41.2 0.0 33.7
10:55 15.5 15.4 99 1000.7 34.9 S 41.2 0.0 33.7
10:56 15.5 15.4 99 1000.6 38.7 S 41.2 0.0 33.8
10:57 15.5 15.4 99 1000.6 27.3 S 41.2 0.8 33.8
10:58 15.5 15.4 99 1000.6 35.8 S 41.2 0.8 33.8
10:59 15.6 15.5 99 1000.6 29.8 S 41.2 0.8 33.8
11:00 15.6 15.5 99 1000.8 37.4 SE 41.2 0.8 33.8
11:01 15.6 15.5 99 1000.9 26.6 S 41.2 0.8 33.8
11:02 15.6 15.5 99 1000.8 30.4 SE 41.2 0.0 33.8
11:03 15.6 15.5 99 1001.0 33.6 SE 38.7 0.0 33.8
11:04 15.6 15.5 99 1000.7 34.2 S 38.7 0.0 33.8
11:05 15.6 15.5 99 1001.0 34.9 SE 38.7 0.0 33.8
11:06 15.6 15.5 99 1000.9 32.7 SE 38.7 0.0 33.8
11:07 15.6 15.5 99 1000.7 34.9 SE 37.4 0.0 33.8
11:08 15.6 15.5 99 1001.2 32.7 SE 37.4 0.0 33.8
11:09 15.6 15.5 99 1000.9 30.4 SE 37.4 0.0 33.8
11:11 15.6 15.5 99 1001.1 30.4 SE 36.5 0.0 33.8
11:12 15.6 15.5 99 1000.7 26.6 S 36.5 0.0 33.8
11:13 15.6 15.5 99 1001.2 30.4 S 36.5 0.0 33.8
11:14 15.6 15.5 99 1000.9 31.1 S 36.5 0.0 33.8
11:15 15.6 15.5 99 1001.5 29.8 SE 35.8 0.0 33.8
11:16 15.6 15.5 99 1001.0 38.0 S 38.0 0.0 33.8
11:17 15.6 15.5 99 1000.8 34.2 S 38.0 0.0 33.8
11:18 15.6 15.5 99 1000.9 27.3 S 38.0 0.0 33.8
11:19 15.6 15.5 99 1001.0 33.6 S 38.0 0.0 33.8
11:20 15.6 15.5 99 1000.7 34.2 SE 38.0 0.0 33.8
11:21 15.6 15.5 99 1000.9 37.4 S 38.0 0.0 33.8
11:22 15.6 15.5 99 1001.0 29.8 SE 38.0 0.0 33.8
11:23 15.6 15.5 99 1001.0 32.7 S 38.0 0.0 33.8
11:24 15.6 15.5 99 1000.8 25.9 S 38.0 0.0 33.8
11:25 15.6 15.5 99 1000.9 35.8 S 38.0 0.8 33.8
11:26 15.6 15.5 99 1001.1 33.6 S 38.0 0.8 33.8
11:28 15.6 15.5 99 1001.1 32.7 S 37.4 0.8 33.8
11:29 15.6 15.5 99 1001.3 34.2 S 37.4 0.8 33.8
11:30 15.6 15.5 99 1001.0 41.8 S 41.8 0.0 33.8
11:31 15.6 15.5 99 1001.1 29.8 SW 41.8 0.0 33.8
11:32 15.6 15.5 99 1001.1 31.1 S 41.8 0.0 33.8
11:33 15.6 15.5 99 1001.1 32.7 SE 41.8 0.0 33.8
11:34 15.6 15.5 99 1001.1 40.3 S 41.8 0.0 33.9
11:35 15.6 15.5 99 1000.9 36.5 SE 41.8 0.8 33.9
11:36 15.6 15.5 99 1000.9 28.2 SE 41.8 0.8 33.9
11:37 15.6 15.5 99 1001.0 26.6 S 41.8 0.8 33.9
11:38 15.6 15.5 99 1000.8 38.7 S 41.8 0.8 33.9
11:39 15.6 15.5 99 1001.2 29.8 SE 41.8 0.8 33.9
11:40 15.6 15.5 99 1001.1 34.2 SE 41.8 0.0 33.9
11:41 15.6 15.5 99 1001.5 26.6 S 41.8 0.0 33.9
11:42 15.7 15.6 99 1001.0 36.5 SE 40.3 0.0 33.9
11:44 15.7 15.6 99 1001.0 31.1 S 40.3 0.0 33.9
11:45 15.6 15.5 99 1001.1 27.3 SE 40.3 0.0 33.9
11:46 15.7 15.6 99 1001.1 30.4 S 38.7 0.0 33.9
11:47 15.7 15.6 99 1001.3 34.2 S 38.7 0.0 33.9
11:48 15.7 15.6 99 1001.2 26.6 S 36.5 0.0 33.9
11:49 15.6 15.5 99 1000.9 32.0 S 36.5 0.0 33.9
11:50 15.7 15.6 99 1001.1 31.1 SE 36.5 0.8 34.0
11:51 15.7 15.6 99 1001.1 40.3 S 40.3 0.8 34.0
11:52 15.7 15.6 99 1001.2 32.0 SE 40.3 0.8 34.0
11:53 15.7 15.6 99 1000.9 34.2 S 40.3 0.8 34.0
11:54 15.7 15.6 99 1000.9 25.1 SW 40.3 0.8 34.0
11:55 15.7 15.6 99 1001.1 30.4 SE 40.3 0.0 34.0
11:56 15.7 15.6 99 1000.9 38.0 SE 40.3 0.0 34.0
11:57 15.7 15.6 99 1001.3 34.9 SE 40.3 0.0 34.0
11:58 15.7 15.6 99 1000.9 29.8 S 40.3 0.0 34.0
12:00 15.7 15.6 99 1001.0 26.6 S 40.3 0.0 34.0
12:01 15.7 15.6 99 1001.3 25.9 SE 40.3 0.0 34.0
12:02 15.7 15.6 99 1000.9 34.9 SE 40.3 0.0 34.0
12:03 15.7 15.6 99 1001.1 25.9 S 40.3 0.0 34.0
12:04 15.7 15.6 99 1001.2 36.5 S 40.3 0.0 34.0
12:05 15.7 15.6 99 1001.1 38.7 SE 40.3 0.0 34.0
12:06 15.8 15.7 99 1001.0 37.4 SE 40.3 0.0 34.0
12:07 15.8 15.7 99 1001.3 23.5 SE 40.3 0.0 34.0
12:08 15.8 15.7 99 1001.2 27.3 SE 40.3 0.0 34.0
12:09 15.8 15.7 99 1001.1 33.6 S 40.3 0.0 34.0
12:10 15.8 15.7 99 1001.5 32.0 S 40.3 0.0 34.0
12:11 15.8 15.7 99 1001.0 39.6 SE 40.3 0.0 34.0
12:12 15.8 15.7 99 1001.1 32.7 E 40.3 0.0 34.0
12:13 15.8 15.7 99 1001.4 33.6 S 39.6 0.0 34.0
12:14 15.8 15.7 99 1001.3 34.2 S 39.6 0.0 34.0
12:16 15.8 15.7 99 1001.3 35.8 S 39.6 0.0 34.0
12:17 15.9 15.8 99 1001.0 28.2 S 39.6 0.0 34.0
12:18 15.9 15.8 99 1001.2 25.9 SE 39.6 0.0 34.0
12:19 15.9 15.8 99 1001.2 34.9 S 39.6 0.0 34.0
12:20 15.9 15.8 99 1001.3 37.4 S 39.6 0.0 34.0
12:21 15.9 15.8 99 1001.2 38.0 S 38.0 0.0 34.0
12:22 15.9 15.8 99 1001.3 37.4 S 38.0 0.0 34.0
12:23 16.1 16.0 99 1001.5 42.5 SE 42.5 0.0 34.0
12:24 16.0 15.9 99 1001.3 36.5 S 42.5 0.0 34.0
12:25 16.0 15.9 99 1001.1 33.6 S 42.5 0.0 34.0
12:26 16.0 15.9 99 1001.2 34.2 S 42.5 0.0 34.0
12:27 16.0 15.9 99 1001.2 40.3 SE 42.5 0.0 34.0
12:28 16.0 15.9 99 1001.3 39.6 S 42.5 0.0 34.0
12:29 16.0 15.9 99 1001.2 30.4 SE 42.5 0.0 34.0
12:30 16.0 15.9 99 1001.5 38.0 SE 42.5 0.0 34.0
12:31 16.0 15.9 99 1001.5 36.5 SE 42.5 0.0 34.0
12:33 16.1 16.0 99 1001.5 32.0 SE 42.5 0.0 34.0
12:34 16.1 16.0 99 1001.3 25.9 S 40.3 0.0 34.0
12:35 16.1 16.0 99 1001.3 30.4 SE 40.3 0.0 34.0
12:36 16.1 16.0 99 1001.1 26.6 S 40.3 0.0 34.0
12:37 16.1 16.0 99 1001.5 28.9 S 39.6 0.0 34.0
12:38 16.1 16.0 99 1001.2 34.2 SE 38.0 0.0 34.0
12:39 16.1 16.0 99 1001.3 43.4 S 43.4 0.0 34.0
12:40 16.1 16.0 99 1001.3 33.6 S 43.4 0.0 34.0
12:41 16.1 16.0 99 1001.3 32.0 S 43.4 0.0 34.0
12:42 16.1 16.0 99 1001.4 31.1 SE 43.4 0.0 34.0
12:43 16.1 16.0 99 1001.4 31.1 SE 43.4 0.0 34.0
12:44 16.1 16.0 99 1001.2 33.6 SE 43.4 0.0 34.0
12:45 16.2 16.1 99 1001.3 29.8 S 43.4 0.0 34.0
12:46 16.2 16.1 99 1001.5 45.0 S 45.0 0.0 34.0
12:47 16.2 16.1 99 1001.2 38.0 SE 45.0 0.0 34.0
12:48 16.2 16.1 99 1001.5 38.0 S 45.0 0.0 34.0
12:49 16.2 16.1 99 1001.5 31.1 SE 45.0 0.0 34.0
12:51 16.2 16.1 99 1001.3 27.3 E 45.0 0.0 34.0
12:52 16.2 16.1 99 1001.3 38.0 SW 45.0 0.0 34.0
12:53 16.2 16.1 99 1001.4 35.8 SE 45.0 0.0 34.0
12:54 16.2 16.1 99 1001.4 39.6 S 45.0 0.0 34.0
12:55 16.2 16.1 99 1001.6 37.4 S 45.0 0.0 34.0
12:56 16.2 16.1 99 1001.7 26.6 S 39.6 0.0 34.0
12:57 16.2 16.1 99 1001.7 34.2 E 39.6 0.0 34.0
12:58 16.2 16.1 99 1001.6 37.4 S 39.6 0.0 34.0
12:59 16.2 16.1 99 1001.8 34.2 SW 39.6 0.0 34.0
13:00 16.2 16.1 99 1001.6 25.9 SE 39.6 0.0 34.0
13:01 16.2 16.1 99 1001.6 25.9 SE 39.6 0.0 34.0
13:02 16.2 16.1 99 1001.8 24.4 S 39.6 0.8 34.0
13:03 16.2 16.1 99 1001.7 34.2 NNE 39.6 0.8 34.0
13:04 16.2 16.1 99 1001.5 36.5 S 39.6 0.8 34.0
13:05 16.2 16.1 99 1001.6 28.9 S 37.4 0.8 34.0
13:06 16.2 16.1 99 1001.8 38.0 E 38.0 0.8 34.0
13:07 16.2 16.1 99 1001.7 28.9 SE 38.0 0.0 34.0
13:08 16.2 16.1 99 1001.8 35.8 S 38.0 0.0 34.0
13:09 16.2 16.1 99 1001.7 31.1 SE 38.0 0.0 34.0
13:10 16.2 16.1 99 1001.7 34.2 SE 38.0 0.0 34.0
13:11 16.2 16.1 99 1001.7 29.8 SW 38.0 0.0 34.0
13:12 16.2 16.1 99 1001.7 25.9 S 38.7 0.0 34.0
13:14 16.1 16.0 99 1001.7 34.2 S 38.7 0.0 34.0
13:15 16.1 16.0 99 1001.6 35.8 S 38.7 0.0 34.0
13:16 16.2 16.1 99 1001.8 32.7 S 38.7 0.0 34.0
13:17 16.1 16.0 99 1001.7 34.2 S 38.7 0.0 34.0
13:18 16.2 16.1 99 1001.9 36.5 S 38.7 0.0 34.0
13:19 16.2 16.1 99 1001.5 36.5 S 38.7 0.0 34.0
13:20 16.2 16.1 99 1001.6 35.8 S 38.7 0.0 34.0
13:21 16.2 16.1 99 1001.5 30.4 S 38.7 0.0 34.0
13:22 16.2 16.1 99 1001.8 39.6 SE 39.6 0.0 34.0
13:23 16.2 16.1 99 1001.7 40.3 S 40.3 0.0 34.0
13:24 16.2 16.1 99 1001.7 38.7 S 40.3 0.0 34.0
13:25 16.2 16.1 99 1001.6 32.0 S 40.3 0.0 34.0
13:26 16.2 16.1 99 1001.6 34.2 S 40.3 0.0 34.0
13:27 16.2 16.1 99 1001.7 36.5 S 40.3 0.0 34.0
13:28 16.2 16.1 99 1001.9 29.8 S 40.3 0.0 34.0
13:29 16.2 16.1 99 1001.7 32.0 S 40.3 0.0 34.0
13:30 16.2 16.1 99 1001.7 34.9 S 40.3 0.0 34.0
13:32 16.2 16.1 99 1001.7 35.8 S 40.3 0.0 34.0
13:33 16.2 16.1 99 1001.7 30.4 S 40.3 0.0 34.0
13:34 16.2 16.1 99 1001.8 28.9 S 39.6 0.0 34.0
13:35 16.3 16.2 99 1001.8 35.8 SW 39.6 0.0 34.0
13:36 16.3 16.2 99 1001.8 39.6 SE 39.6 0.0 34.0
13:37 16.3 16.2 99 1001.7 40.3 SE 40.3 0.0 34.0
13:38 16.3 16.2 99 1001.7 32.0 SE 40.3 0.0 34.0
13:39 16.3 16.2 99 1001.9 40.3 S 40.3 0.0 34.0
13:40 16.3 16.2 99 1001.8 35.8 SW 40.3 0.0 34.0
13:41 16.3 16.2 99 1002.1 28.2 SW 40.3 0.0 34.0
13:42 16.3 16.2 99 1001.9 39.6 S 40.3 0.0 34.0
13:43 16.3 16.2 99 1001.9 41.2 S 41.2 0.0 34.0
13:44 16.3 16.2 99 1001.8 34.9 SE 41.8 0.0 34.0
13:45 16.3 16.2 99 1001.8 38.7 S 41.8 0.0 34.0
13:46 16.4 16.3 99 1001.9 42.5 SE 42.5 0.0 34.0
13:47 16.4 16.3 99 1001.7 29.8 SE 42.5 0.0 34.0
13:48 16.4 16.3 99 1002.0 32.7 SW 42.5 0.0 34.0
13:50 16.4 16.3 99 1001.8 38.7 SE 42.5 0.0 34.0
13:51 16.4 16.3 99 1001.9 36.5 S 42.5 0.0 34.0
13:52 16.4 16.3 99 1001.7 28.2 SE 42.5 0.0 34.0
13:53 16.4 16.3 99 1001.8 23.5 S 42.5 0.0 34.0
13:54 16.4 16.3 99 1002.0 33.6 S 42.5 0.0 34.0
13:55 16.4 16.3 99 1001.7 42.5 S 42.5 0.0 34.0
13:56 16.4 16.3 99 1002.0 27.3 SE 42.5 0.0 34.0
13:57 16.4 16.3 99 1001.9 29.8 SE 42.5 0.0 34.0
13:58 16.4 16.3 99 1001.9 28.9 S 42.5 0.0 34.0
13:59 16.4 16.3 99 1002.0 36.5 S 42.5 0.0 34.0
14:00 16.4 16.3 99 1001.9 38.0 S 42.5 0.0 34.0
14:01 16.4 16.3 99 1002.1 38.0 S 42.5 0.0 34.0
14:02 16.4 16.3 99 1002.0 31.1 SE 42.5 0.0 34.0
14:03 16.4 16.3 99 1002.0 32.7 SE 42.5 0.0 34.0
14:04 16.4 16.3 99 1001.9 25.1 SE 42.5 0.0 34.0
14:05 16.4 16.3 99 1002.1 28.9 SE 42.5 0.0 34.0
14:06 16.4 16.3 99 1002.2 33.6 SE 39.6 0.0 34.0
14:08 16.4 16.3 99 1002.0 38.7 S 39.6 0.0 34.0
14:09 16.4 16.3 99 1002.0 28.9 S 39.6 0.0 34.0
14:10 16.4 16.3 99 1002.1 28.9 SE 39.6 0.0 34.0
14:11 16.4 16.3 99 1002.2 26.6 S 39.6 0.0 34.0
14:12 16.4 16.3 99 1002.0 25.1 S 39.6 0.0 34.0
14:13 16.4 16.3 99 1002.1 31.1 SE 39.6 0.0 34.0
14:14 16.4 16.3 99 1002.1 36.5 SSW 38.7 0.0 34.0
14:15 16.4 16.3 99 1002.1 38.7 S 38.7 0.0 34.0
14:16 16.5 16.4 99 1002.3 34.2 WSW 38.7 0.0 34.0
14:17 16.5 16.4 99 1002.3 36.5 S 38.7 0.0 34.0
14:18 16.5 16.4 99 1002.2 29.8 SE 38.7 0.0 34.0
14:19 16.5 16.4 99 1002.0 35.8 SE 38.7 0.0 34.0
14:20 16.5 16.4 99 1002.2 32.7 SE 38.7 0.0 34.0
14:21 16.5 16.4 99 1002.0 34.2 ESE 38.7 0.0 34.0
14:22 16.5 16.4 99 1002.2 27.3 S 38.7 0.0 34.0
14:23 16.5 16.4 99 1002.4 33.6 SE 38.7 0.0 34.0
14:25 16.5 16.4 99 1002.2 36.5 SSE 44.1 0.0 34.0
14:26 16.5 16.4 99 1002.3 31.1 S 44.1 0.0 34.0
14:27 16.5 16.4 99 1002.0 28.2 SW 44.1 0.0 34.0
14:28 16.5 16.4 99 1002.3 29.8 S 44.1 0.0 34.0
14:29 16.5 16.4 99 1002.4 36.5 SE 44.1 0.0 34.0
14:30 16.5 16.4 99 1002.3 32.0 S 44.1 0.0 34.0
14:31 16.5 16.4 99 1002.3 27.3 S 44.1 0.0 34.0
14:32 16.5 16.4 99 1002.3 26.6 SW 44.1 0.0 34.0
14:33 16.5 16.4 99 1002.4 32.7 SE 44.1 0.0 34.0
14:34 16.5 16.4 99 1002.4 32.0 SE 36.5 0.0 34.0
14:35 16.5 16.4 99 1002.2 32.7 E 36.5 0.0 34.0
14:36 16.5 16.4 99 1002.2 29.8 S 36.5 0.0 34.0
14:37 16.5 16.4 99 1002.1 29.8 SE 36.5 0.0 34.0
14:38 16.5 16.4 99 1002.4 34.2 SE 36.5 0.0 34.0
14:39 16.5 16.4 99 1002.4 32.7 S 36.5 0.0 34.0
14:40 16.5 16.4 99 1002.2 27.3 SSW 34.2 0.0 34.0
14:41 16.5 16.4 99 1002.3 27.3 S 34.2 0.0 34.0
14:43 16.5 16.4 99 1002.2 24.4 S 39.6 0.0 34.0
14:44 16.5 16.4 99 1002.4 28.9 SW 39.6 0.0 34.0
14:45 16.5 16.4 99 1002.3 25.1 S 39.6 0.0 34.0
14:46 16.5 16.4 99 1002.5 38.0 S 39.6 0.0 34.0
14:47 16.5 16.4 99 1002.2 33.6 SE 39.6 0.0 34.0
14:48 16.5 16.4 99 1002.3 28.2 SE 39.6 0.0 34.0
14:49 16.5 16.4 99 1002.2 36.5 SE 39.6 0.0 34.0
14:50 16.5 16.4 99 1002.5 34.9 SE 39.6 0.0 34.0
14:51 16.5 16.4 99 1002.5 34.9 S 39.6 0.0 34.0
14:52 16.5 16.4 99 1002.6 28.2 S 38.0 0.0 34.0
14:53 16.5 16.4 99 1002.5 39.6 SE 39.6 0.0 34.0
14:54 16.5 16.4 99 1002.4 32.0 S 39.6 0.0 34.0
14:55 16.5 16.4 99 1002.6 32.7 SE 39.6 0.0 34.0
14:56 16.5 16.4 99 1002.5 27.3 S 39.6 0.0 34.0
14:57 16.6 16.5 99 1002.4 26.6 SE 39.6 0.0 34.0
14:58 16.6 16.5 99 1002.3 28.9 S 39.6 0.0 34.0
14:59 16.6 16.5 99 1002.4 32.7 SE 39.6 0.0 34.0
15:00 16.5 16.4 99 1002.8 29.8 S 39.6 0.0 34.0
15:01 16.5 16.4 99 1002.6 29.8 S 39.6 0.0 34.0
15:02 16.6 16.5 99 1002.6 32.7 S 39.6 0.0 34.0
15:03 16.5 16.4 99 1002.7 31.1 SSW 34.9 0.0 34.0
15:04 16.5 16.4 99 1002.6 23.5 S 34.9 0.0 34.0
15:05 16.5 16.4 99 1002.4 32.0 SE 34.9 0.0 34.0
15:06 16.6 16.5 99 1002.8 29.8 S 32.7 0.0 34.0
15:07 16.6 16.5 99 1002.7 33.6 S 33.6 0.0 34.0
15:08 16.6 16.5 99 1002.7 31.1 SE 33.6 0.0 34.0
15:09 16.6 16.5 99 1002.7 26.6 S 33.6 0.0 34.0
15:10 16.6 16.5 99 1002.7 28.2 SE 33.6 0.0 34.0
15:11 16.6 16.5 99 1002.6 28.2 SE 33.6 0.0 34.0
15:12 16.6 16.5 99 1002.8 27.3 SE 33.6 0.0 34.0
15:13 16.6 16.5 99 1002.6 34.2 S 34.2 0.0 34.0
15:14 16.6 16.5 99 1002.8 28.2 S 34.2 0.0 34.0
15:15 16.6 16.5 99 1002.8 22.8 S 34.2 0.0 34.0
15:16 16.6 16.5 99 1002.6 23.5 SE 34.2 0.0 34.0
15:17 16.6 16.5 99 1002.8 24.4 S 34.2 0.0 34.0
15:18 16.6 16.5 99 1002.5 26.6 S 34.2 0.0 34.0
15:19 16.6 16.5 99 1002.8 25.1 S 34.2 0.0 34.0
15:20 16.6 16.5 99 1002.7 26.6 E 34.2 0.0 34.0
15:21 16.6 16.5 99 1002.9 32.7 S 34.2 0.0 34.0
15:22 16.6 16.5 99 1002.8 28.9 SW 34.2 0.0 34.0
15:23 16.6 16.5 99 1002.8 22.1 SE 34.2 0.0 34.0
15:24 16.6 16.5 99 1002.8 32.0 S 34.2 0.0 34.0
15:26 16.6 16.5 99 1003.0 28.9 SE 35.8 0.0 34.0
15:27 16.6 16.5 99 1002.9 30.4 SE 35.8 0.0 34.0
15:28 16.6 16.5 99 1003.1 33.6 E 35.8 0.0 34.0
15:29 16.6 16.5 99 1002.8 29.8 S 35.8 0.0 34.0
15:30 16.6 16.5 99 1002.9 25.9 S 35.8 0.0 34.0
15:31 16.6 16.5 99 1003.0 42.5 SSW 42.5 0.0 34.0
15:32 16.6 16.5 99 1002.9 41.2 SE 42.5 0.0 34.0
15:33 16.6 16.5 99 1003.1 28.9 E 42.5 0.0 34.0
15:34 16.6 16.5 99 1002.9 40.3 S 42.5 0.0 34.0
15:35 16.6 16.5 99 1002.9 40.3 S 42.5 0.0 34.0
15:36 16.7 16.6 99 1002.9 30.4 SE 42.5 0.0 34.0
15:37 16.7 16.6 99 1002.9 29.8 SE 42.5 0.0 34.0
15:38 16.7 16.6 99 1002.8 31.1 S 42.5 0.0 34.0
15:39 16.7 16.6 99 1002.7 37.4 SE 42.5 0.0 34.0
15:40 16.6 16.5 99 1002.9 30.4 S 42.5 0.0 34.0
15:41 16.7 16.6 99 1002.8 33.6 SE 42.5 0.0 34.0
15:42 16.6 16.5 99 1002.9 39.6 S 41.2 0.0 34.0
15:43 16.6 16.5 99 1002.9 30.4 SE 40.3 0.0 34.0
15:44 16.6 16.5 99 1002.8 31.1 S 40.3 0.0 34.0
15:45 16.6 16.5 99 1003.1 22.8 S 39.6 0.0 34.0
15:46 16.6 16.5 99 1002.8 34.9 S 39.6 0.0 34.0
15:47 16.6 16.5 99 1002.9 28.2 SE 39.6 0.0 34.0
15:48 16.6 16.5 99 1003.1 26.6 SE 39.6 0.0 34.0
15:49 16.6 16.5 99 1002.9 32.7 SE 39.6 0.0 34.0
15:50 16.6 16.5 99 1003.2 29.8 S 39.6 0.0 34.0
15:51 16.6 16.5 99 1003.1 39.6 S 39.6 0.0 34.0
15:52 16.6 16.5 99 1003.1 27.3 S 39.6 0.0 34.0
15:53 16.6 16.5 99 1003.1 29.8 SE 39.6 0.0 34.0
15:54 16.6 16.5 99 1003.1 29.8 SE 39.6 0.0 34.0
15:55 16.6 16.5 99 1003.0 28.9 S 39.6 0.0 34.0
15:56 16.6 16.5 99 1003.1 25.1 S 39.6 0.0 34.0
15:57 16.6 16.5 99 1003.1 31.1 S 39.6 0.0 34.0
15:58 16.6 16.5 99 1002.9 25.9 SE 39.6 0.0 34.0
15:59 16.6 16.5 99 1002.9 39.6 SW 39.6 0.0 34.0
16:00 16.6 16.5 99 1003.1 28.2 S 39.6 0.0 34.0
16:01 16.6 16.5 99 1003.3 28.2 S 39.6 0.0 34.0
16:02 16.6 16.5 99 1003.1 34.2 S 39.6 0.0 34.0
16:03 16.6 16.5 99 1003.0 29.8 SE 39.6 0.0 34.0
16:04 16.6 16.5 99 1002.8 28.9 SE 39.6 0.0 34.0
16:05 16.5 16.4 99 1003.1 29.8 SSW 39.6 0.0 34.0
16:06 16.5 16.4 99 1003.1 36.5 SW 39.6 0.0 34.0
16:07 16.5 16.4 99 1003.1 31.1 WNW 39.6 0.0 34.0
16:08 16.6 16.5 99 1003.0 34.2 SSE 39.6 0.0 34.0
16:09 16.6 16.5 99 1003.0 29.8 SW 38.7 0.0 34.0
16:10 16.6 16.5 99 1003.0 34.2 SE 38.7 0.0 34.0
16:11 16.5 16.4 99 1003.0 32.0 S 38.7 0.0 34.0
16:12 16.5 16.4 99 1003.0 26.6 SE 38.7 0.0 34.0
16:13 16.5 16.4 99 1003.2 28.9 S 36.5 0.0 34.0
16:14 16.5 16.4 99 1003.1 29.8 S 36.5 0.0 34.0
16:15 16.5 16.4 99 1003.2 33.6 S 36.5 0.0 34.0
16:16 16.5 16.4 99 1003.1 27.3 SE 36.5 0.0 34.0
16:17 16.5 16.4 99 1003.1 29.8 S 34.2 0.0 34.0
16:18 16.5 16.4 99 1003.1 25.1 SE 34.2 0.0 34.0
16:19 16.5 16.4 99 1003.3 36.5 S 36.5 0.0 34.0
16:20 16.5 16.4 99 1003.2 32.0 SW 36.5 0.0 34.0
16:21 16.5 16.4 99 1003.2 34.2 SE 36.5 0.0 34.0
16:22 16.5 16.4 99 1003.3 28.9 S 36.5 0.0 34.0
16:23 16.5 16.4 99 1003.1 41.8 S 41.8 0.0 34.0
16:24 16.5 16.4 99 1003.1 28.9 S 41.8 0.0 34.0
16:25 16.5 16.4 99 1003.2 33.6 SE 41.8 0.0 34.0
16:26 16.5 16.4 99 1003.2 26.6 S 41.8 0.0 34.0
16:27 16.5 16.4 99 1003.1 25.1 S 41.8 0.0 34.0
16:28 16.5 16.4 99 1003.3 25.9 SE 41.8 0.0 34.0
16:29 16.5 16.4 99 1003.4 28.2 S 41.8 0.0 34.0
16:30 16.5 16.4 99 1003.3 41.8 S 41.8 0.0 34.0
16:31 16.5 16.4 99 1003.3 41.8 S 41.8 0.0 34.0
16:32 16.5 16.4 99 1003.4 34.2 S 41.8 0.0 34.0
16:33 16.5 16.4 99 1003.2 31.1 SE 41.8 0.0 34.0
16:34 16.5 16.4 99 1003.4 24.4 S 41.8 0.0 34.0
16:35 16.5 16.4 99 1003.4 29.8 S 41.8 0.0 34.0
16:36 16.5 16.4 99 1003.3 21.3 S 41.8 0.0 34.0
16:37 16.5 16.4 99 1003.3 33.6 SE 41.8 0.0 34.0
16:38 16.5 16.4 99 1003.3 26.6 S 41.8 0.0 34.0
16:39 16.5 16.4 99 1003.4 28.2 S 41.8 0.0 34.0
16:40 16.5 16.4 99 1003.6 32.0 S 41.8 0.0 34.0
16:41 16.5 16.4 99 1003.5 25.9 S 34.2 0.0 34.0
16:42 16.5 16.4 99 1003.4 24.4 S 33.6 0.0 34.0
16:43 16.5 16.4 99 1003.3 28.9 S 33.6 0.0 34.0
16:44 16.5 16.4 99 1003.4 26.6 S 33.6 0.0 34.0
16:45 16.5 16.4 99 1003.4 31.1 S 34.9 0.0 34.0
16:46 16.5 16.4 99 1003.6 41.2 S 41.2 0.0 34.0
16:47 16.5 16.4 99 1003.3 32.7 S 41.2 0.0 34.0
16:48 16.5 16.4 99 1003.4 35.8 SE 41.2 0.0 34.0
16:49 16.5 16.4 99 1003.3 26.6 SE 41.2 0.0 34.0
16:50 16.5 16.4 99 1003.5 25.1 S 41.2 0.0 34.0
16:51 16.5 16.4 99 1003.4 25.9 S 41.2 0.0 34.0
16:52 16.5 16.4 99 1003.4 28.9 SE 41.2 0.0 34.0
16:53 16.5 16.4 99 1003.5 25.9 SW 41.2 0.0 34.0
16:54 16.5 16.4 99 1003.4 26.6 E 41.2 0.0 34.0
16:55 16.5 16.4 99 1003.4 22.8 S 41.2 0.0 34.0
16:56 16.5 16.4 99 1003.6 33.6 SE 41.2 0.0 34.0
16:57 16.5 16.4 99 1003.3 28.2 S 35.8 0.0 34.0
16:58 16.5 16.4 99 1003.6 28.2 S 33.6 0.0 34.0
16:59 16.5 16.4 99 1003.5 24.4 SE 33.6 0.0 34.0
17:00 16.5 16.4 99 1003.5 31.1 SE 33.6 0.0 34.0
17:01 16.5 16.4 99 1003.6 23.5 S 33.6 0.0 34.0
17:02 16.5 16.4 99 1003.4 28.2 SE 33.6 0.0 34.0
17:03 16.5 16.4 99 1003.5 28.9 S 33.6 0.0 34.0
17:04 16.5 16.4 99 1003.6 31.1 S 33.6 0.0 34.0
17:05 16.5 16.4 99 1003.6 23.5 S 33.6 0.0 34.0
17:06 16.5 16.4 99 1003.5 22.8 S 31.1 0.0 34.0
17:07 16.5 16.4 99 1003.6 25.1 SE 31.1 0.0 34.0
17:08 16.5 16.4 99 1003.5 24.4 S 31.1 0.0 34.0
17:09 16.5 16.4 99 1003.5 32.0 S 32.0 0.8 34.1
17:10 16.5 16.4 99 1003.5 25.9 S 32.0 0.8 34.1
17:11 16.5 16.4 99 1003.6 25.9 S 32.0 0.8 34.1
17:12 16.5 16.4 99 1003.5 28.9 S 32.0 0.8 34.1
17:13 16.5 16.4 99 1003.6 27.3 SE 32.0 0.8 34.1
17:14 16.5 16.4 99 1003.6 19.7 SE 32.0 0.0 34.1
17:15 16.5 16.4 99 1003.6 30.4 S 32.0 0.0 34.1
17:16 16.5 16.4 99 1003.6 25.1 S 32.0 0.0 34.1
17:17 16.5 16.4 99 1003.6 29.8 SE 32.0 0.0 34.1
17:18 16.3 16.2 99 1003.4 28.9 S 32.0 0.0 34.1
17:19 16.5 16.4 99 1003.6 22.1 SE 32.0 0.0 34.1
17:20 16.5 16.4 99 1003.5 22.8 S 31.1 0.0 34.1
17:21 16.5 16.4 99 1003.4 27.3 SE 31.1 0.0 34.1
17:22 16.5 16.4 99 1003.6 25.1 S 31.1 0.8 34.1
17:23 16.5 16.4 99 1003.5 32.0 SE 32.7 0.8 34.1
17:24 16.5 16.4 99 1003.6 21.3 S 32.7 0.8 34.1
17:25 16.5 16.4 99 1003.6 28.9 S 32.7 0.8 34.1
17:26 16.5 16.4 99 1003.5 26.6 S 32.7 0.8 34.1
17:27 16.5 16.4 99 1003.4 30.4 S 32.7 0.0 34.1
17:28 16.4 16.3 99 1003.6 28.9 S 32.7 0.0 34.1
17:29 16.4 16.3 99 1003.4 30.4 S 32.7 0.0 34.1
17:30 16.4 16.3 99 1003.3 28.2 S 32.7 0.0 34.1
17:31 16.4 16.3 99 1003.3 28.2 S 32.7 0.0 34.1
17:32 16.4 16.3 99 1003.5 29.8 SE 32.7 0.0 34.1
17:33 16.4 16.3 99 1003.8 26.6 S 32.0 0.0 34.1
17:34 16.3 16.2 99 1003.4 28.2 SE 32.0 0.0 34.1
17:35 16.4 16.3 99 1003.5 25.1 SE 32.0 0.0 34.1
17:36 16.3 16.2 99 1003.8 32.0 SE 32.0 0.0 34.1
17:37 16.3 16.2 99 1003.5 39.6 S 39.6 0.0 34.1
17:38 16.3 16.2 99 1003.4 28.2 S 39.6 0.0 34.1
17:39 16.3 16.2 99 1003.6 32.0 S 39.6 0.0 34.1
17:40 16.3 16.2 99 1003.5 27.3 S 39.6 0.0 34.1
17:41 16.2 16.1 99 1003.6 30.4 SE 39.6 0.0 34.1
17:42 16.3 16.2 99 1003.6 25.1 SSW 39.6 0.0 34.1
17:43 16.3 16.2 99 1003.4 28.2 S 39.6 0.0 34.1
17:44 16.2 16.1 99 1003.7 26.6 SE 39.6 0.0 34.1
17:45 16.2 16.1 99 1003.6 29.8 S 39.6 0.0 34.1
17:46 16.2 16.1 99 1003.8 31.1 SE 39.6 0.0 34.1
17:47 16.2 16.1 99 1003.8 29.8 S 32.0 0.0 34.1
17:48 16.2 16.1 99 1003.7 28.9 S 32.0 0.0 34.1
17:49 16.2 16.1 99 1003.7 25.9 SW 31.1 0.8 34.2
17:50 16.2 16.1 99 1003.7 25.9 SW 31.1 0.8 34.2
17:51 16.2 16.1 99 1003.7 28.9 S 31.1 0.8 34.2
17:52 16.3 16.2 99 1003.8 36.5 SE 36.5 0.8 34.2
17:53 16.3 16.2 99 1003.8 26.6 S 36.5 0.8 34.2
17:54 16.3 16.2 99 1003.8 31.1 SE 36.5 0.0 34.2
17:55 16.3 16.2 99 1003.8 28.2 S 36.5 0.0 34.2
17:56 16.3 16.2 99 1003.7 24.4 SE 36.5 0.0 34.2
17:57 16.3 16.2 99 1003.8 20.6 S 36.5 0.0 34.2
17:58 16.3 16.2 99 1003.7 29.8 S 36.5 0.0 34.2
17:59 16.3 16.2 99 1003.8 28.9 S 36.5 0.0 34.2
18:01 16.3 16.2 99 1004.0 24.4 SSE 36.5 0.0 34.2
18:02 16.3 16.2 99 1003.8 26.6 NE 32.7 0.0 34.2
18:03 16.3 16.2 99 1003.8 28.9 SSW 32.7 0.0 34.2
18:04 16.3 16.2 99 1003.9 27.3 SE 32.7 0.0 34.2
18:05 16.3 16.2 99 1003.8 27.3 SE 32.7 0.0 34.2
18:06 16.3 16.2 99 1003.8 29.8 E 32.7 0.0 34.2
18:07 16.3 16.2 99 1003.7 25.9 S 32.7 0.0 34.2
18:08 16.3 16.2 99 1003.8 38.0 SE 38.0 0.0 34.2
18:09 16.4 16.3 99 1003.7 34.9 SE 38.0 0.0 34.2
18:10 16.3 16.2 99 1003.9 22.8 SSE 38.0 0.0 34.2
18:11 16.3 16.2 99 1003.9 33.6 SE 38.0 0.0 34.2
18:12 16.3 16.2 99 1003.9 28.9 SE 38.0 0.0 34.2
18:13 16.3 16.2 99 1003.9 28.2 SE 38.0 0.0 34.2
18:14 16.3 16.2 99 1003.8 25.1 S 38.0 0.0 34.2
18:15 16.3 16.2 99 1003.9 25.9 SE 38.0 0.0 34.2
18:16 16.3 16.2 99 1003.8 24.4 S 38.0 0.0 34.2
18:17 16.3 16.2 99 1003.9 28.2 SW 38.0 0.0 34.2
18:18 16.3 16.2 99 1004.1 33.6 S 38.0 0.0 34.2
18:19 16.3 16.2 99 1004.0 24.4 SE 33.6 0.0 34.2
18:20 16.3 16.2 99 1004.0 36.5 SSE 36.5 0.0 34.2
18:21 16.3 16.2 99 1003.8 20.6 S 36.5 0.0 34.2
18:22 16.3 16.2 99 1004.0 28.2 S 36.5 0.0 34.2
18:23 16.3 16.2 99 1003.9 34.2 SE 36.5 0.0 34.2
18:24 16.3 16.2 99 1004.0 26.6 SE 36.5 0.0 34.2
18:25 16.3 16.2 99 1003.9 26.6 SE 36.5 0.0 34.2
18:26 16.3 16.2 99 1003.9 34.9 SE 36.5 0.0 34.2
18:27 16.3 16.2 99 1004.0 28.2 SE 36.5 0.0 34.2
18:28 16.3 16.2 99 1004.1 21.3 S 36.5 0.0 34.2
18:29 16.3 16.2 99 1004.2 32.0 S 36.5 0.0 34.2
18:30 16.3 16.2 99 1004.0 25.1 S 36.5 0.0 34.2
18:31 16.3 16.2 99 1004.1 28.2 S 36.5 0.0 34.2
18:32 16.3 16.2 99 1004.0 23.5 S 34.9 0.0 34.2
18:33 16.3 16.2 99 1004.1 22.1 S 34.9 0.0 34.2
18:34 16.3 16.2 99 1004.2 18.3 SE 34.9 0.0 34.2
18:35 16.3 16.2 99 1004.1 19.7 SE 34.9 0.0 34.2
18:36 16.3 16.2 99 1004.3 25.9 SE 34.9 0.0 34.2
18:37 16.3 16.2 99 1004.0 32.0 S 32.0 0.0 34.2
18:38 16.4 16.3 99 1004.2 22.1 S 32.0 0.0 34.2
18:39 16.4 16.3 99 1004.2 18.3 SE 32.0 0.0 34.2
18:40 16.4 16.3 99 1004.3 25.1 SE 32.0 0.0 34.2
18:41 16.4 16.3 99 1004.2 23.5 SE 32.0 0.0 34.2
18:42 16.4 16.3 99 1004.1 27.3 S 32.0 0.0 34.2
18:43 16.4 16.3 99 1004.4 27.3 S 32.0 0.0 34.2
18:44 16.4 16.3 99 1004.4 28.2 S 32.0 0.0 34.2
18:45 16.4 16.3 99 1004.5 27.3 S 32.0 0.8 34.3
18:46 16.4 16.3 99 1004.4 27.3 S 32.0 0.8 34.3
18:47 16.4 16.3 99 1004.4 27.3 S 32.0 0.8 34.3
18:48 16.4 16.3 99 1004.6 24.4 S 28.2 1.5 34.3
18:49 16.4 16.3 99 1004.4 24.4 S 28.2 2.3 34.4
18:50 16.4 16.3 99 1004.4 30.4 S 30.4 1.5 34.4
18:51 16.4 16.3 99 1004.4 34.9 SE 34.9 2.3 34.5
18:52 16.4 16.3 99 1004.5 26.6 S 34.9 2.3 34.5
18:53 16.4 16.3 99 1004.3 25.1 S 34.9 2.3 34.5
18:54 16.4 16.3 99 1004.6 25.9 SE 34.9 1.5 34.5
18:55 16.4 16.3 99 1004.3 28.9 SE 34.9 1.5 34.5
18:57 16.5 16.4 99 1004.3 34.2 S 34.9 0.8 34.5
18:58 16.5 16.4 99 1004.4 32.0 S 34.9 0.0 34.5
18:59 16.5 16.4 99 1004.4 30.4 SW 34.9 0.0 34.5
19:00 16.5 16.4 99 1004.4 24.4 S 34.9 0.0 34.5
19:01 16.5 16.4 99 1004.5 25.9 S 34.2 0.0 34.5
19:02 16.5 16.4 99 1004.6 25.1 SW 34.2 0.0 34.5
19:03 16.5 16.4 99 1004.6 22.1 S 34.2 0.0 34.5
19:04 16.5 16.4 99 1004.5 28.9 S 34.2 0.0 34.5
19:05 16.5 16.4 99 1004.5 31.1 S 34.2 0.0 34.5
19:06 16.5 16.4 99 1004.3 31.1 S 34.2 0.0 34.5
19:07 16.5 16.4 99 1004.7 24.4 SE 34.2 0.0 34.5
19:08 16.5 16.4 99 1004.3 25.1 S 32.0 0.0 34.5
19:09 16.5 16.4 99 1004.5 28.2 SE 31.1 0.0 34.5
19:10 16.5 16.4 99 1004.6 25.1 SE 31.1 0.0 34.5
19:11 16.5 16.4 99 1004.5 25.9 S 31.1 0.0 34.5
19:12 16.5 16.4 99 1004.4 25.9 SE 31.1 0.0 34.5
19:13 16.5 16.4 99 1004.7 37.4 SSE 37.4 0.0 34.5
19:14 16.5 16.4 99 1004.5 21.3 SE 37.4 0.0 34.5
19:15 16.5 16.4 99 1004.8 23.5 SE 37.4 0.0 34.5
19:16 16.5 16.4 99 1004.7 21.3 SE 37.4 0.0 34.5
19:17 16.5 16.4 99 1004.8 25.9 S 37.4 0.0 34.5
19:18 16.5 16.4 99 1004.8 22.1 S 37.4 0.0 34.5
19:19 16.5 16.4 99 1004.8 22.1 S 37.4 0.0 34.5
19:20 16.5 16.4 99 1004.8 24.4 SE 37.4 0.0 34.5
19:21 16.5 16.4 99 1005.0 26.6 SW 37.4 0.8 34.6
19:22 16.5 16.4 99 1004.9 26.6 SE 37.4 0.8 34.6
19:23 16.5 16.4 99 1004.9 34.2 S 37.4 0.8 34.6
19:24 16.5 16.4 99 1004.9 28.9 SE 37.4 0.8 34.6
19:25 16.4 16.3 99 1004.8 30.4 S 34.2 0.8 34.6
19:26 16.4 16.3 99 1004.8 23.5 S 34.2 0.0 34.6
19:27 16.5 16.4 99 1004.9 23.5 SE 34.2 0.0 34.6
19:28 16.4 16.3 99 1004.9 26.6 E 34.2 0.0 34.6
19:29 16.4 16.3 99 1004.9 20.6 SE 34.2 0.8 34.6
19:30 16.5 16.4 99 1004.8 20.6 S 34.2 0.8 34.6
19:31 16.4 16.3 99 1004.9 32.7 S 34.2 0.8 34.6
19:32 16.5 16.4 99 1005.2 26.6 SE 35.8 0.8 34.6
19:33 16.5 16.4 99 1004.9 25.9 S 35.8 0.8 34.6
19:35 16.5 16.4 99 1004.8 22.1 S 35.8 0.0 34.6
19:36 16.5 16.4 99 1004.9 26.6 S 35.8 0.0 34.6
19:37 16.5 16.4 99 1005.0 30.4 S 35.8 0.0 34.6
19:38 16.5 16.4 99 1004.9 23.5 SW 35.8 0.0 34.6
19:39 16.5 16.4 99 1005.0 28.9 S 35.8 0.0 34.6
19:40 16.5 16.4 99 1004.8 30.4 SE 35.8 0.0 34.6
19:41 16.5 16.4 99 1005.0 26.6 SW 35.8 0.0 34.6
19:42 16.5 16.4 99 1005.0 24.4 SW 30.4 0.0 34.6
19:43 16.5 16.4 99 1005.0 28.9 S 30.4 0.0 34.6
19:44 16.5 16.4 99 1005.1 26.6 S 30.4 0.0 34.6
19:45 16.5 16.4 99 1004.9 20.6 S 30.4 0.0 34.6
19:46 16.5 16.4 99 1004.9 20.6 S 30.4 0.0 34.6
19:47 16.5 16.4 99 1005.1 27.3 SW 30.4 0.0 34.6
19:48 16.5 16.4 99 1005.2 21.3 S 30.4 0.0 34.6
19:49 16.5 16.4 99 1005.1 19.0 S 30.4 0.0 34.6
19:50 16.5 16.4 99 1005.1 29.8 SE 30.4 0.0 34.6
19:51 16.5 16.4 99 1005.3 27.3 S 29.8 0.0 34.6
19:52 16.5 16.4 99 1005.0 26.6 S 29.8 0.0 34.6
19:53 16.5 16.4 99 1005.0 23.5 S 29.8 0.0 34.6
19:54 16.5 16.4 99 1005.3 22.8 S 29.8 0.0 34.6
19:55 16.5 16.4 99 1005.0 36.5 SE 36.5 0.0 34.6
19:56 16.5 16.4 99 1005.2 25.9 S 36.5 0.0 34.6
19:57 16.5 16.4 99 1005.0 25.9 SE 36.5 0.0 34.6
19:58 16.5 16.4 99 1005.2 28.2 S 36.5 0.0 34.6
19:59 16.5 16.4 99 1005.3 25.1 S 36.5 0.0 34.6
20:00 16.5 16.4 99 1005.3 28.2 S 36.5 0.0 34.6
20:02 16.4 16.3 99 1005.3 25.1 ESE 36.5 0.0 34.6
20:03 16.5 16.4 99 1005.3 24.4 S 36.5 0.0 34.6
20:04 16.5 16.4 99 1005.2 29.8 S 36.5 0.0 34.6
20:05 16.5 16.4 99 1005.3 26.6 SE 32.7 0.0 34.6
20:06 16.5 16.4 99 1005.1 22.1 SE 32.7 0.0 34.7
20:07 16.4 16.3 99 1005.4 28.9 E 32.7 0.8 34.7
20:08 16.5 16.4 99 1005.3 35.8 S 35.8 0.8 34.7
20:09 16.5 16.4 99 1005.2 25.9 SE 35.8 0.8 34.7
20:10 16.5 16.4 99 1005.2 26.6 S 35.8 0.8 34.7
20:11 16.5 16.4 99 1005.2 26.6 SE 35.8 0.8 34.7
20:12 16.5 16.4 99 1005.1 30.4 SSW 35.8 0.0 34.7
20:13 16.4 16.3 99 1005.3 24.4 S 35.8 0.0 34.7
20:14 16.5 16.4 99 1005.4 32.7 SE 35.8 0.8 34.8
20:15 16.4 16.3 99 1005.2 32.0 S 35.8 0.8 34.8
20:16 16.5 16.4 99 1005.4 23.5 SE 35.8 0.8 34.8
20:17 16.5 16.4 99 1005.3 23.5 SE 35.8 0.8 34.8
20:18 16.5 16.4 99 1005.2 23.5 S 35.8 0.8 34.8
20:19 16.5 16.4 99 1005.2 26.6 SE 32.7 0.0 34.8
20:20 16.5 16.4 99 1005.2 30.4 SE 32.7 0.0 34.8
20:21 16.5 16.4 99 1005.3 28.2 SE 32.7 0.0 34.8
20:22 16.5 16.4 99 1005.2 24.4 S 32.7 0.0 34.8
20:23 16.4 16.3 99 1005.2 24.4 S 32.7 0.0 34.8
20:24 16.4 16.3 99 1005.2 36.5 S 36.5 0.8 34.8
20:25 16.4 16.3 99 1005.1 33.6 S 36.5 0.8 34.8
20:26 16.5 16.4 99 1005.3 29.8 S 36.5 0.8 34.8
20:27 16.4 16.3 99 1005.2 22.1 SE 36.5 0.8 34.8
20:28 16.5 16.4 99 1005.3 28.9 NW 36.5 0.8 34.8
20:30 16.5 16.4 99 1005.1 24.4 S 36.5 0.0 34.8
20:31 16.5 16.4 99 1005.3 28.9 SE 36.5 0.0 34.8
20:32 16.5 16.4 99 1005.2 32.7 SE 36.5 0.0 34.8
20:33 16.5 16.4 99 1005.2 28.2 SE 36.5 0.8 34.9
20:34 16.5 16.4 99 1005.3 28.9 S 36.5 0.8 34.9
20:35 16.5 16.4 99 1005.2 19.0 SE 36.5 0.8 34.9
20:36 16.5 16.4 99 1005.2 30.4 S 36.5 0.8 34.9
20:37 16.5 16.4 99 1005.2 30.4 SE 36.5 0.8 34.9
20:38 16.5 16.4 99 1005.2 28.2 S 36.5 0.0 34.9
20:39 16.5 16.4 99 1005.4 25.9 S 32.7 0.0 35.0
20:40 16.5 16.4 99 1005.3 27.3 S 32.7 0.8 35.0
20:41 16.5 16.4 99 1005.2 24.4 SE 32.7 0.8 35.0
20:42 16.5 16.4 99 1005.3 32.0 S 32.7 0.8 35.0
20:43 16.5 16.4 99 1005.2 27.3 S 32.0 0.8 35.0
20:44 16.5 16.4 99 1005.0 22.8 SE 32.0 0.8 35.0
20:45 16.5 16.4 99 1005.0 24.4 NW 32.0 0.0 35.0
20:46 16.5 16.4 99 1005.1 28.9 S 32.0 0.0 35.0
20:47 16.5 16.4 99 1005.1 22.8 S 32.0 0.0 35.0
20:48 16.5 16.4 99 1005.0 25.9 S 32.0 0.0 35.0
20:49 16.5 16.4 99 1005.1 24.4 SE 32.0 0.0 35.0
20:50 16.0 15.9 99 1005.0 32.7 SE 32.7 0.8 35.0
20:51 16.5 16.4 99 1005.2 26.6 S 32.7 0.8 35.0
20:52 16.5 16.4 99 1005.1 22.1 SE 32.7 0.8 35.0
20:53 16.5 16.4 99 1004.9 27.3 SE 32.7 0.8 35.0
20:54 16.5 16.4 99 1005.0 22.8 S 32.7 0.8 35.0
20:55 16.5 16.4 99 1005.0 28.2 S 32.7 0.0 35.0
20:56 16.5 16.4 99 1005.1 25.1 S 32.7 0.0 35.0
20:58 16.5 16.4 99 1005.0 24.4 SW 32.7 0.0 35.0
20:59 16.5 16.4 99 1005.1 25.9 S 32.7 0.0 35.0
21:00 16.5 16.4 99 1005.2 31.1 S 31.1 0.0 35.0
21:01 16.5 16.4 99 1005.0 27.3 S 31.1 0.0 35.0
21:02 16.5 16.4 99 1005.2 27.3 SE 31.1 0.0 35.0
21:03 16.5 16.4 99 1005.2 22.8 SE 31.1 0.0 35.0
21:04 16.5 16.4 99 1005.2 22.1 S 31.1 0.0 35.0
21:05 16.5 16.4 99 1005.3 26.6 S 31.1 0.0 35.0
21:06 16.5 16.4 99 1005.1 21.3 SW 31.1 0.0 35.0
21:07 16.5 16.4 99 1005.4 16.8 S 31.1 0.0 35.0
21:08 16.5 16.4 99 1005.2 25.9 SE 31.1 0.0 35.0
21:09 16.5 16.4 99 1005.1 22.8 SE 31.1 0.0 35.0
21:10 16.5 16.4 99 1005.1 28.2 SSE 31.1 0.0 35.0
21:11 16.5 16.4 99 1005.2 26.6 S 28.2 0.0 35.0
21:12 16.5 16.4 99 1005.2 21.3 S 28.2 0.0 35.0
21:13 16.5 16.4 99 1005.2 31.1 S 31.1 0.0 35.0
21:14 16.5 16.4 99 1005.1 23.5 SSE 31.1 0.0 35.0
21:15 16.5 16.4 99 1005.2 23.5 SE 31.1 0.0 35.0
21:16 16.5 16.4 99 1005.2 29.8 S 31.1 0.0 35.0
21:17 16.5 16.4 99 1005.3 25.1 SE 31.1 0.0 35.1
21:18 16.5 16.4 99 1005.3 23.5 S 31.1 0.8 35.1
21:19 16.5 16.4 99 1005.3 23.5 S 31.1 0.8 35.1
21:20 16.5 16.4 99 1005.3 21.3 SE 31.1 0.8 35.1
21:21 16.5 16.4 99 1005.2 24.4 S 31.1 0.8 35.1
21:22 16.5 16.4 99 1005.3 29.8 S 31.1 0.8 35.1
21:23 16.5 16.4 99 1005.6 30.4 S 31.1 0.0 35.1
21:24 16.5 16.4 99 1005.3 31.1 SE 31.1 0.0 35.1
21:25 16.5 16.4 99 1005.3 25.1 S 31.1 0.0 35.1
21:26 16.5 16.4 99 1005.3 30.4 SE 31.1 0.0 35.1
21:27 16.5 16.4 99 1005.2 26.6 S 31.1 0.0 35.1
21:28 16.5 16.4 99 1005.3 20.6 S 31.1 0.0 35.1
21:29 16.5 16.4 99 1005.3 23.5 S 31.1 0.0 35.1
21:30 16.5 16.4 99 1005.3 25.1 S 31.1 0.0 35.1
21:31 16.5 16.4 99 1005.4 25.1 S 31.1 0.0 35.1
21:32 16.5 16.4 99 1005.3 32.0 SE 32.0 0.0 35.1
21:33 16.5 16.4 99 1005.3 26.6 S 32.0 0.0 35.1
21:34 16.5 16.4 99 1005.3 20.6 SE 32.0 0.0 35.1
21:35 16.5 16.4 99 1005.4 22.1 S 32.0 0.0 35.1
21:36 16.5 16.4 99 1005.4 24.4 S 32.0 0.0 35.1
21:38 16.5 16.4 99 1005.2 25.1 SSE 32.0 0.0 35.1
21:39 16.5 16.4 99 1005.3 23.5 WSW 32.0 0.0 35.1
21:40 16.5 16.4 99 1005.3 25.1 SE 32.0 0.0 35.1
21:41 16.5 16.4 99 1005.3 19.7 SE 32.0 0.0 35.1
21:42 16.5 16.4 99 1005.3 26.6 SE 30.4 0.0 35.2
21:43 16.5 16.4 99 1005.3 24.4 S 30.4 0.8 35.2
21:44 16.6 16.5 99 1005.2 19.7 S 30.4 0.8 35.2
21:45 16.5 16.4 99 1005.3 26.6 S 30.4 0.8 35.2
21:46 16.5 16.4 99 1005.2 19.7 SE 30.4 0.8 35.2
21:47 16.5 16.4 99 1005.3 18.3 S 30.4 0.8 35.2
21:48 16.5 16.4 99 1005.3 25.9 SE 26.6 0.0 35.2
21:49 16.6 16.5 99 1005.3 27.3 S 27.3 0.0 35.2
21:50 16.5 16.4 99 1005.3 26.6 S 27.3 0.0 35.2
21:51 16.5 16.4 99 1004.9 22.1 SE 27.3 0.0 35.2
21:52 16.5 16.4 99 1005.4 16.8 SE 27.3 0.0 35.2
21:53 16.5 16.4 99 1005.2 25.9 S 27.3 0.0 35.2
21:54 16.5 16.4 99 1005.0 28.9 SE 28.9 0.0 35.2
21:55 16.5 16.4 99 1005.2 21.3 SE 30.4 0.0 35.2
21:56 16.6 16.5 99 1005.2 22.8 S 30.4 0.0 35.2
21:57 16.5 16.4 99 1005.2 34.2 S 34.2 0.0 35.2
21:58 16.6 16.5 99 1005.0 31.1 SE 34.2 0.0 35.2
21:59 16.5 16.4 99 1005.3 29.8 SE 34.2 0.0 35.2
22:00 16.5 16.4 99 1005.6 28.9 SSW 34.2 0.0 35.2
22:01 16.5 16.4 99 1005.5 24.4 S 34.2 0.0 35.2
22:02 16.5 16.4 99 1005.5 22.1 SE 34.2 0.0 35.2
22:03 16.5 16.4 99 1005.3 18.3 SE 34.2 0.0 35.2
22:04 16.5 16.4 99 1005.3 22.1 S 34.2 0.0 35.2
22:06 16.6 16.5 99 1005.4 22.1 SE 34.2 0.0 35.2
22:07 16.6 16.5 99 1005.3 20.6 SE 31.1 0.0 35.2
22:08 16.6 16.5 99 1005.5 22.1 S 29.8 0.0 35.2
22:09 16.6 16.5 99 1005.3 18.3 S 30.4 0.0 35.2
22:10 16.6 16.5 99 1005.2 15.9 SSE 30.4 0.0 35.2
22:11 16.5 16.4 99 1005.4 14.5 SE 30.4 0.0 35.2
22:12 16.6 16.5 99 1005.3 24.4 S 30.4 0.0 35.2
22:13 16.6 16.5 99 1005.5 27.3 S 30.4 0.0 35.2
22:14 16.6 16.5 99 1005.4 26.6 S 30.4 0.0 35.2
22:15 16.6 16.5 99 1005.5 25.9 S 30.4 0.8 35.2
22:16 16.6 16.5 99 1005.2 31.1 SW 31.1 0.8 35.2
22:17 16.6 16.5 99 1005.5 27.3 S 31.1 0.8 35.2
22:18 16.6 16.5 99 1005.4 26.6 NNE 31.1 0.8 35.2
22:19 16.6 16.5 99 1005.3 22.8 S 31.1 0.8 35.2
22:20 16.6 16.5 99 1005.4 22.8 SSE 31.1 0.0 35.2
22:21 16.6 16.5 99 1005.4 25.9 S 31.1 0.0 35.2
22:22 16.5 16.4 99 1005.5 28.2 SW 31.1 0.0 35.2
22:23 16.6 16.5 99 1005.5 23.5 SE 31.1 0.0 35.2
22:24 16.5 16.4 99 1005.3 25.9 S 32.0 0.0 35.2
22:25 16.5 16.4 99 1005.4 25.1 SE 32.0 0.0 35.2
22:26 16.5 16.4 99 1005.3 22.1 SE 32.0 0.0 35.2
22:27 16.5 16.4 99 1005.6 25.9 S 32.0 0.0 35.2
22:28 16.5 16.4 99 1005.4 25.9 S 32.0 0.0 35.2
22:29 16.5 16.4 99 1005.6 30.4 S 32.0 0.0 35.2
22:30 16.5 16.4 99 1005.4 22.8 S 32.0 0.0 35.2
22:31 16.5 16.4 99 1005.6 27.3 SE 32.0 0.0 35.2
22:32 16.5 16.4 99 1005.7 26.6 SE 32.0 0.0 35.2
22:33 16.5 16.4 99 1005.6 32.0 SE 32.0 0.0 35.2
22:35 16.5 16.4 99 1005.3 18.3 S 32.0 0.0 35.2
22:36 16.5 16.4 99 1005.6 20.6 S 32.0 0.0 35.2
22:37 16.5 16.4 99 1005.4 29.8 SE 32.0 0.0 35.2
22:38 16.5 16.4 99 1005.5 28.2 S 32.0 0.0 35.2
22:39 16.5 16.4 99 1005.4 23.5 S 32.0 0.0 35.2
22:40 16.5 16.4 99 1005.5 21.3 SE 32.0 0.0 35.2
22:41 16.5 16.4 99 1005.4 22.8 S 32.0 0.0 35.2
22:42 16.5 16.4 99 1005.4 30.4 S 32.0 0.0 35.2
22:43 16.5 16.4 99 1005.4 30.4 S 32.0 0.0 35.2
22:44 16.5 16.4 99 1005.4 24.4 SE 30.4 0.0 35.2
22:45 16.5 16.4 99 1005.4 30.4 S 30.4 0.0 35.2
22:46 16.5 16.4 99 1005.5 27.3 SSW 30.4 0.0 35.2
22:47 16.5 16.4 99 1005.3 24.4 S 30.4 0.0 35.2
22:48 16.5 16.4 99 1005.3 19.7 S 30.4 0.0 35.2
22:49 16.5 16.4 99 1005.3 28.2 S 30.4 0.0 35.2
22:50 16.5 16.4 99 1005.5 24.4 SSE 30.4 0.0 35.2
22:51 16.5 16.4 99 1005.4 23.5 S 30.4 0.0 35.2
22:52 16.5 16.4 99 1005.5 21.3 E 30.4 0.0 35.2
22:53 16.5 16.4 99 1005.5 28.2 S 30.4 0.0 35.2
22:54 16.5 16.4 99 1005.4 26.6 SE 30.4 0.0 35.2
22:55 16.5 16.4 99 1005.4 26.6 S 30.4 0.0 35.2
22:56 16.5 16.4 99 1005.5 28.2 S 28.2 0.0 35.2
22:57 16.5 16.4 99 1005.4 28.9 S 28.9 0.0 35.2
22:58 16.6 16.5 99 1005.3 26.6 S 28.9 0.0 35.2
22:59 16.6 16.5 99 1005.4 24.4 S 28.9 0.0 35.2
23:01 16.6 16.5 99 1005.2 24.4 SW 28.9 0.0 35.2
23:02 16.6 16.5 99 1005.2 25.1 SE 28.9 0.0 35.2
23:03 16.6 16.5 99 1005.7 22.1 S 28.9 0.0 35.2
23:04 16.6 16.5 99 1005.5 23.5 S 28.9 0.0 35.2
23:05 16.6 16.5 99 1005.6 24.4 S 28.9 0.0 35.2
23:06 16.6 16.5 99 1005.4 20.6 SE 28.9 0.0 35.2
23:07 16.6 16.5 99 1005.5 27.3 S 28.9 0.0 35.2
23:08 16.6 16.5 99 1005.6 29.8 S 29.8 0.0 35.3
23:09 16.6 16.5 99 1005.4 24.4 S 29.8 0.8 35.3
23:10 16.6 16.5 99 1005.4 28.2 S 29.8 0.8 35.3
23:11 16.6 16.5 99 1005.3 25.9 SSE 29.8 0.8 35.3
23:12 16.6 16.5 99 1005.5 31.1 SE 31.1 0.8 35.3
23:13 16.6 16.5 99 1005.5 22.8 SE 31.1 0.8 35.3
23:14 16.6 16.5 99 1005.3 27.3 S 31.1 0.0 35.3
23:15 16.6 16.5 99 1005.4 25.1 SE 31.1 0.0 35.3
23:16 16.6 16.5 99 1005.6 29.8 SE 31.1 0.0 35.3
23:18 16.6 16.5 99 1005.5 28.2 SE 31.1 0.0 35.3
23:19 16.6 16.5 99 1005.2 25.1 S 31.1 0.0 35.3
23:20 16.6 16.5 99 1005.4 26.6 SE 31.1 0.0 35.3
23:21 16.6 16.5 99 1005.4 23.5 S 31.1 0.0 35.3
23:22 16.6 16.5 99 1005.3 27.3 S 31.1 0.0 35.3
23:23 16.6 16.5 99 1005.3 24.4 S 31.1 0.0 35.3
23:24 16.6 16.5 99 1005.3 24.4 SE 29.8 0.0 35.3
23:25 16.6 16.5 99 1005.4 28.9 S 29.8 0.0 35.3
23:26 16.6 16.5 99 1005.3 21.3 SE 29.8 0.0 35.3
23:27 16.6 16.5 99 1005.2 20.6 SW 29.8 0.0 35.3
23:28 16.6 16.5 99 1005.6 26.6 SE 28.9 0.0 35.3
23:29 16.6 16.5 99 1005.2 31.1 SE 31.1 0.0 35.3
23:30 16.6 16.5 99 1005.5 32.0 SSE 32.0 0.0 35.3
23:31 16.6 16.5 99 1005.2 26.6 S 34.9 0.0 35.3
23:32 16.6 16.5 99 1005.4 19.0 S 34.9 0.0 35.3
23:33 16.6 16.5 99 1005.3 28.9 S 34.9 0.8 35.3
23:34 16.6 16.5 99 1005.3 23.5 S 34.9 0.8 35.3
23:35 16.6 16.5 99 1005.3 21.3 S 34.9 2.3 35.5
23:36 16.6 16.5 99 1005.3 25.9 S 34.9 2.3 35.5
23:37 16.6 16.5 99 1005.2 22.8 S 34.9 2.3 35.5
23:38 16.6 16.5 99 1005.2 25.9 SW 34.9 1.5 35.5
23:39 16.6 16.5 99 1005.3 22.1 S 34.9 1.5 35.5
23:40 16.6 16.5 99 1005.1 20.6 S 34.9 0.0 35.5
23:41 16.6 16.5 99 1005.4 18.3 S 28.9 0.0 35.5
23:42 16.6 16.5 99 1005.1 22.8 S 28.9 0.0 35.5
23:43 16.5 16.4 99 1005.1 27.3 SE 27.3 0.0 35.5
23:44 16.5 16.4 99 1005.1 21.3 SSW 30.4 0.0 35.5
23:45 16.6 16.5 99 1005.1 27.3 SE 30.4 0.0 35.5
23:46 16.6 16.5 99 1005.3 29.8 SE 30.4 0.0 35.5
23:48 16.6 16.5 99 1005.2 28.2 S 30.4 0.0 35.5
23:49 16.6 16.5 99 1005.4 21.3 S 30.4 0.0 35.5
23:50 16.6 16.5 99 1005.3 29.8 S 30.4 0.0 35.5
23:51 16.6 16.5 99 1005.3 33.6 SE 33.6 0.0 35.5
23:52 16.6 16.5 99 1005.4 31.1 S 33.6 0.8 35.5
23:53 16.6 16.5 99 1005.4 34.2 S 34.2 0.8 35.5
23:54 16.6 16.5 99 1005.3 28.9 S 34.2 0.8 35.5
23:55 16.6 16.5 99 1005.5 25.9 S 34.2 0.8 35.5
23:56 16.6 16.5 99 1005.3 24.4 S 34.2 0.8 35.5
23:57 16.6 16.5 99 1005.3 28.2 S 34.2 0.0 35.5
23:58 16.6 16.5 99 1005.2 22.8 SE 34.2 0.0 35.5
23:59 16.6 16.5 99 1005.3 24.4 S 34.2 0.0 35.5

UK - WEATHER STATION TOPSITES - UK World Weather Websites

This is a private weather station, never base important decisions or events on data from this weather station. Although every effort has been made to make the data as accurate as possible it does not meet MetOffice standards. It is proved as a guide of local weather conditions. We accept no liability for any loss which may arise from use of the data.

Copyright © Carnkie Weather 2009 - 2018.